| time (UTC) | temp F | wind direction | speed MPH | gust MPH | rain 1hr in | rain 24hr in | rain mn in | humidity % | barometer mb |
| 20260505095946 | 55 | 360 | 9.0 | 13.0 | 0.00 | 0.00 | 0.00 | 68 | |
| 20260505095846 | 55 | 1 | 9.0 | 13.0 | 0.00 | 0.00 | 0.00 | 70 | |
| 20260505095746 | 55 | 360 | 9.0 | 13.0 | 0.00 | 0.00 | 0.00 | 69 | |
| 20260505095646 | 55 | 359 | 9.0 | 13.0 | 0.00 | 0.00 | 0.00 | 69 | |
| 20260505095546 | 55 | 356 | 9.0 | 13.0 | 0.00 | 0.00 | 0.00 | 69 | |
| 20260505095446 | 54 | 355 | 9.0 | 13.0 | 0.00 | 0.00 | 0.00 | 70 | |
| 20260505095346 | 54 | 352 | 9.0 | 13.0 | 0.00 | 0.00 | 0.00 | 70 | |
| 20260505095308 | 54 | 351 | 9.0 | 13.0 | 0.00 | 0.00 | 0.00 | 70 | |
| 20260505095146 | 54 | 351 | 9.0 | 13.0 | 0.00 | 0.00 | 0.00 | 70 | |
| 20260505095046 | 54 | 352 | 9.0 | 13.0 | 0.00 | 0.00 | 0.00 | 70 | |
| 20260505095007 | 54 | 351 | 9.0 | 12.0 | 0.00 | 0.00 | 0.00 | 70 | |
| 20260505094846 | 54 | 349 | 9.0 | 12.0 | 0.00 | 0.00 | 0.00 | 70 | |
| 20260505094746 | 54 | 347 | 9.0 | 13.0 | 0.00 | 0.00 | 0.00 | 70 | |
| 20260505094646 | 54 | 346 | 9.0 | 13.0 | 0.00 | 0.00 | 0.00 | 69 | |
| 20260505094546 | 54 | 346 | 9.0 | 13.0 | 0.00 | 0.00 | 0.00 | 70 | |
| 20260505094506 | 54 | 347 | 9.0 | 13.0 | 0.00 | 0.00 | 0.00 | 70 | |
| 20260505094407 | 54 | 350 | 9.0 | 13.0 | 0.00 | 0.00 | 0.00 | 69 | |
| 20260505094246 | 54 | 352 | 9.0 | 13.0 | 0.00 | 0.00 | 0.00 | 70 | |
| 20260505094146 | 55 | 353 | 9.0 | 13.0 | 0.00 | 0.00 | 0.00 | 72 | |
| 20260505094107 | 55 | 355 | 9.0 | 13.0 | 0.00 | 0.00 | 0.00 | 72 | |
| 20260505093946 | 55 | 359 | 9.0 | 13.0 | 0.00 | 0.00 | 0.00 | 72 | |
| 20260505093846 | 55 | 358 | 9.0 | 13.0 | 0.00 | 0.00 | 0.00 | 73 | |
| 20260505093746 | 54 | 359 | 9.0 | 13.0 | 0.00 | 0.00 | 0.00 | 73 | |
| 20260505093646 | 54 | 360 | 9.0 | 13.0 | 0.00 | 0.00 | 0.00 | 71 | |
| 20260505093546 | 54 | 3 | 10.0 | 13.0 | 0.00 | 0.00 | 0.00 | 71 | |
| 20260505093447 | 54 | 359 | 10.0 | 13.0 | 0.00 | 0.00 | 0.00 | 71 | |
| 20260505093346 | 54 | 355 | 10.0 | 14.0 | 0.00 | 0.00 | 0.00 | 72 | |
| 20260505093307 | 54 | 353 | 10.0 | 14.0 | 0.00 | 0.00 | 0.00 | 72 | |
| 20260505093146 | 54 | 350 | 10.0 | 14.0 | 0.00 | 0.00 | 0.00 | 72 | |
| 20260505093046 | 54 | 347 | 10.0 | 14.0 | 0.00 | 0.00 | 0.00 | 71 | |
| 20260505093007 | 54 | 344 | 10.0 | 14.0 | 0.00 | 0.00 | 0.00 | 71 | |
| 20260505092846 | 54 | 344 | 9.0 | 14.0 | 0.00 | 0.00 | 0.00 | 72 | |
| 20260505092746 | 54 | 344 | 9.0 | 14.0 | 0.00 | 0.00 | 0.00 | 72 | |
| 20260505092645 | 54 | 343 | 9.0 | 14.0 | 0.00 | 0.00 | 0.00 | 73 | |
| 20260505092546 | 54 | 342 | 9.0 | 14.0 | 0.00 | 0.00 | 0.00 | 72 | |
| 20260505092446 | 54 | 344 | 9.0 | 14.0 | 0.00 | 0.00 | 0.00 | 73 | |
| 20260505092346 | 55 | 346 | 8.0 | 14.0 | 0.00 | 0.00 | 0.00 | 75 | |
| 20260505092246 | 55 | 346 | 8.0 | 14.0 | 0.00 | 0.00 | 0.00 | 75 | |
| 20260505092146 | 54 | 346 | 8.0 | 14.0 | 0.00 | 0.00 | 0.00 | 75 | |
| 20260505092107 | 54 | 349 | 8.0 | 14.0 | 0.00 | 0.00 | 0.00 | 75 | |
| 20260505091946 | 54 | 351 | 7.0 | 13.0 | 0.00 | 0.00 | 0.00 | 75 | |
| 20260505091846 | 54 | 348 | 7.0 | 13.0 | 0.00 | 0.00 | 0.00 | 73 | |
| 20260505091746 | 54 | 349 | 7.0 | 13.0 | 0.00 | 0.00 | 0.00 | 73 | |
| 20260505091708 | 54 | 349 | 7.0 | 13.0 | 0.00 | 0.00 | 0.00 | 73 | |
| 20260505091546 | 54 | 349 | 7.0 | 13.0 | 0.00 | 0.00 | 0.00 | 77 | |
| 20260505091446 | 54 | 348 | 7.0 | 10.0 | 0.00 | 0.00 | 0.00 | 77 | |
| 20260505091346 | 54 | 348 | 7.0 | 11.0 | 0.00 | 0.00 | 0.00 | 76 | |
| 20260505091307 | 54 | 348 | 7.0 | 11.0 | 0.00 | 0.00 | 0.00 | 76 | |
| 20260505091146 | 53 | 349 | 7.0 | 11.0 | 0.00 | 0.00 | 0.00 | 76 | |
| 20260505091107 | 53 | 349 | 8.0 | 11.0 | 0.00 | 0.00 | 0.00 | 76 | |
| 20260505091007 | 53 | 349 | 8.0 | 12.0 | 0.00 | 0.00 | 0.00 | 75 | |
| 20260505090845 | 53 | 349 | 8.0 | 12.0 | 0.00 | 0.00 | 0.00 | 75 | |
| 20260505090807 | 53 | 348 | 8.0 | 12.0 | 0.00 | 0.00 | 0.00 | 75 | |
| 20260505090646 | 53 | 345 | 8.0 | 12.0 | 0.00 | 0.00 | 0.00 | 74 | |
| 20260505090546 | 53 | 344 | 8.0 | 12.0 | 0.00 | 0.00 | 0.00 | 75 | |
| 20260505090446 | 53 | 344 | 9.0 | 12.0 | 0.00 | 0.00 | 0.00 | 75 | |
| 20260505090346 | 53 | 345 | 9.0 | 12.0 | 0.00 | 0.00 | 0.00 | 75 | |
| 20260505090246 | 53 | 345 | 9.0 | 12.0 | 0.00 | 0.00 | 0.00 | 76 | |
| 20260505090146 | 53 | 345 | 9.0 | 12.0 | 0.00 | 0.00 | 0.00 | 77 | |
| 20260505090046 | 53 | 342 | 8.0 | 12.0 | 0.00 | 0.00 | 0.00 | 76 | |
| 20260505085946 | 53 | 341 | 9.0 | 12.0 | 0.00 | 0.00 | 0.00 | 75 | |
| 20260505085846 | 53 | 341 | 9.0 | 12.0 | 0.00 | 0.00 | 0.00 | 75 | |
| 20260505085746 | 53 | 345 | 8.0 | 12.0 | 0.00 | 0.00 | 0.00 | 75 | |
| 20260505085646 | 53 | 350 | 8.0 | 12.0 | 0.00 | 0.00 | 0.00 | 75 | |
| 20260505085607 | 53 | 351 | 8.0 | 12.0 | 0.00 | 0.00 | 0.00 | 75 | |
| 20260505085447 | 53 | 352 | 8.0 | 12.0 | 0.00 | 0.00 | 0.00 | 76 | |
| 20260505085346 | 53 | 350 | 8.0 | 12.0 | 0.00 | 0.00 | 0.00 | 77 | |
| 20260505085247 | 53 | 350 | 8.0 | 11.0 | 0.00 | 0.00 | 0.00 | 77 | |
| 20260505085145 | 53 | 353 | 8.0 | 10.0 | 0.00 | 0.00 | 0.00 | 77 | |
| 20260505085046 | 53 | 357 | 8.0 | 10.0 | 0.00 | 0.00 | 0.00 | 77 | |
| 20260505084946 | 53 | 360 | 8.0 | 11.0 | 0.00 | 0.00 | 0.00 | 76 | |
| 20260505084846 | 52 | 3 | 8.0 | 11.0 | 0.00 | 0.00 | 0.00 | 76 | |
| 20260505084746 | 52 | 1 | 8.0 | 11.0 | 0.00 | 0.00 | 0.00 | 76 | |
| 20260505084707 | 52 | 359 | 8.0 | 11.0 | 0.00 | 0.00 | 0.00 | 76 | |
| 20260505084546 | 52 | 356 | 8.0 | 11.0 | 0.00 | 0.00 | 0.00 | 77 | |
| 20260505084446 | 52 | 354 | 8.0 | 11.0 | 0.00 | 0.00 | 0.00 | 78 | |
| 20260505084346 | 52 | 353 | 8.0 | 11.0 | 0.00 | 0.00 | 0.00 | 77 | |
| 20260505084245 | 52 | 353 | 8.0 | 11.0 | 0.00 | 0.00 | 0.00 | 77 | |
| 20260505084146 | 52 | 352 | 8.0 | 11.0 | 0.00 | 0.00 | 0.00 | 78 | |
| 20260505084107 | 52 | 351 | 8.0 | 11.0 | 0.00 | 0.00 | 0.00 | 78 | |
| 20260505083946 | 52 | 346 | 8.0 | 11.0 | 0.00 | 0.00 | 0.00 | 77 | |
| 20260505083846 | 52 | 343 | 8.0 | 11.0 | 0.00 | 0.00 | 0.00 | 77 | |
| 20260505083746 | 52 | 341 | 8.0 | 11.0 | 0.00 | 0.00 | 0.00 | 77 | |
| 20260505083707 | 52 | 339 | 8.0 | 12.0 | 0.00 | 0.00 | 0.00 | 77 | |
| 20260505083546 | 52 | 340 | 8.0 | 12.0 | 0.00 | 0.00 | 0.00 | 77 | |
| 20260505083447 | 52 | 340 | 8.0 | 12.0 | 0.00 | 0.00 | 0.00 | 78 | |
| 20260505083346 | 52 | 342 | 8.0 | 12.0 | 0.00 | 0.00 | 0.00 | 79 | |
| 20260505083246 | 52 | 344 | 8.0 | 12.0 | 0.00 | 0.00 | 0.00 | 78 | |
| 20260505083145 | 52 | 343 | 8.0 | 12.0 | 0.00 | 0.00 | 0.00 | 78 | |
| 20260505083107 | 52 | 342 | 8.0 | 12.0 | 0.00 | 0.00 | 0.00 | 78 | |
| 20260505082946 | 52 | 344 | 8.0 | 12.0 | 0.00 | 0.00 | 0.00 | 79 | |
| 20260505082846 | 52 | 347 | 8.0 | 12.0 | 0.00 | 0.00 | 0.00 | 79 | |
| 20260505082746 | 52 | 350 | 8.0 | 12.0 | 0.00 | 0.00 | 0.00 | 79 | |
| 20260505082646 | 52 | 350 | 8.0 | 11.0 | 0.00 | 0.00 | 0.00 | 79 | |
| 20260505082546 | 52 | 349 | 8.0 | 11.0 | 0.00 | 0.00 | 0.00 | 79 | |
| 20260505082446 | 52 | 348 | 8.0 | 11.0 | 0.00 | 0.00 | 0.00 | 78 | |
| 20260505082346 | 52 | 346 | 8.0 | 11.0 | 0.00 | 0.00 | 0.00 | 79 | |
| 20260505082245 | 52 | 343 | 8.0 | 12.0 | 0.00 | 0.00 | 0.00 | 80 | |
| 20260505082146 | 52 | 342 | 8.0 | 12.0 | 0.00 | 0.00 | 0.00 | 81 | |
| 20260505082046 | 51 | 342 | 8.0 | 12.0 | 0.00 | 0.00 | 0.00 | 81 | |
| 20260505081946 | 51 | 341 | 8.0 | 12.0 | 0.00 | 0.00 | 0.00 | 80 | |
| 20260505081845 | 51 | 341 | 8.0 | 12.0 | 0.00 | 0.00 | 0.00 | 80 | |
| 20260505081746 | 51 | 340 | 9.0 | 12.0 | 0.00 | 0.00 | 0.00 | 80 | |
| 20260505081646 | 51 | 339 | 9.0 | 12.0 | 0.00 | 0.00 | 0.00 | 80 | |
| 20260505081607 | 51 | 338 | 9.0 | 12.0 | 0.00 | 0.00 | 0.00 | 80 | |
| 20260505081446 | 51 | 337 | 9.0 | 12.0 | 0.00 | 0.00 | 0.00 | 80 | |
| 20260505081407 | 51 | 336 | 8.0 | 12.0 | 0.00 | 0.00 | 0.00 | 80 | |
| 20260505081247 | 51 | 335 | 8.0 | 11.0 | 0.00 | 0.00 | 0.00 | 80 | |
| 20260505081146 | 51 | 334 | 8.0 | 11.0 | 0.00 | 0.00 | 0.00 | 81 | |
| 20260505081046 | 51 | 333 | 8.0 | 12.0 | 0.00 | 0.00 | 0.00 | 81 | |
| 20260505080946 | 51 | 331 | 8.0 | 12.0 | 0.00 | 0.00 | 0.00 | 81 | |
| 20260505080846 | 51 | 329 | 9.0 | 12.0 | 0.00 | 0.00 | 0.00 | 82 | |
| 20260505080746 | 51 | 326 | 8.0 | 12.0 | 0.00 | 0.00 | 0.00 | 81 | |
| 20260505080707 | 51 | 326 | 9.0 | 12.0 | 0.00 | 0.00 | 0.00 | 81 | |
| 20260505080546 | 50 | 326 | 9.0 | 12.0 | 0.00 | 0.00 | 0.00 | 82 | |
| 20260505080446 | 50 | 328 | 9.0 | 12.0 | 0.00 | 0.00 | 0.00 | 82 | |
| 20260505080407 | 50 | 329 | 9.0 | 12.0 | 0.00 | 0.00 | 0.00 | 82 | |
| 20260505080246 | 50 | 329 | 9.0 | 12.0 | 0.00 | 0.00 | 0.00 | 82 | |
| 20260505080147 | 50 | 331 | 9.0 | 12.0 | 0.00 | 0.00 | 0.00 | 82 | |
| 20260505080109 | 50 | 332 | 9.0 | 12.0 | 0.00 | 0.00 | 0.00 | 82 | |
| 20260505075947 | 50 | 334 | 9.0 | 12.0 | 0.00 | 0.00 | 0.00 | 82 | |
| 20260505075846 | 50 | 335 | 9.0 | 12.0 | 0.00 | 0.00 | 0.00 | 82 | |
| 20260505075745 | 50 | 337 | 9.0 | 12.0 | 0.00 | 0.00 | 0.00 | 83 | |
| 20260505075646 | 50 | 337 | 9.0 | 12.0 | 0.00 | 0.00 | 0.00 | 83 | |
| 20260505075607 | 50 | 338 | 8.0 | 12.0 | 0.00 | 0.00 | 0.00 | 83 | |
| 20260505075446 | 50 | 339 | 8.0 | 11.0 | 0.00 | 0.00 | 0.00 | 83 | |
| 20260505075346 | 50 | 341 | 8.0 | 11.0 | 0.00 | 0.00 | 0.00 | 83 | |
| 20260505075246 | 50 | 341 | 9.0 | 12.0 | 0.00 | 0.00 | 0.00 | 83 | |
| 20260505075146 | 50 | 342 | 9.0 | 12.0 | 0.00 | 0.00 | 0.00 | 83 | |
| 20260505075046 | 50 | 342 | 9.0 | 12.0 | 0.00 | 0.00 | 0.00 | 83 | |
| 20260505074946 | 50 | 341 | 9.0 | 12.0 | 0.00 | 0.00 | 0.00 | 84 | |
| 20260505074846 | 50 | 339 | 9.0 | 12.0 | 0.00 | 0.00 | 0.00 | 84 | |
| 20260505074807 | 50 | 339 | 9.0 | 12.0 | 0.00 | 0.00 | 0.00 | 84 | |
| 20260505074646 | 50 | 338 | 9.0 | 12.0 | 0.00 | 0.00 | 0.00 | 84 | |
| 20260505074546 | 49 | 339 | 10.0 | 12.0 | 0.00 | 0.00 | 0.00 | 84 | |
| 20260505074445 | 49 | 339 | 9.0 | 12.0 | 0.00 | 0.00 | 0.00 | 84 | |
| 20260505074346 | 49 | 339 | 9.0 | 12.0 | 0.00 | 0.00 | 0.00 | 84 | |
| 20260505074246 | 49 | 339 | 9.0 | 12.0 | 0.00 | 0.00 | 0.00 | 85 | |
| 20260505074146 | 49 | 337 | 9.0 | 12.0 | 0.00 | 0.00 | 0.00 | 85 | |
| 20260505074046 | 49 | 335 | 8.0 | 12.0 | 0.00 | 0.00 | 0.00 | 84 | |
| 20260505074007 | 49 | 334 | 8.0 | 12.0 | 0.00 | 0.00 | 0.00 | 84 | |
| 20260505073846 | 49 | 334 | 8.0 | 12.0 | 0.00 | 0.00 | 0.00 | 86 | |
| 20260505073746 | 49 | 334 | 8.0 | 12.0 | 0.00 | 0.00 | 0.00 | 85 | |
| 20260505073646 | 49 | 333 | 8.0 | 12.0 | 0.00 | 0.00 | 0.00 | 86 | |
| 20260505073545 | 49 | 332 | 8.0 | 12.0 | 0.00 | 0.00 | 0.00 | 87 | |
| 20260505073447 | 49 | 330 | 8.0 | 10.0 | 0.00 | 0.00 | 0.00 | 87 | |
| 20260505073346 | 49 | 329 | 8.0 | 10.0 | 0.00 | 0.00 | 0.00 | 87 | |
| 20260505073246 | 49 | 328 | 8.0 | 10.0 | 0.00 | 0.00 | 0.00 | 87 | |
| 20260505073146 | 48 | 328 | 8.0 | 10.0 | 0.00 | 0.00 | 0.00 | 86 | |
| 20260505073046 | 48 | 327 | 8.0 | 10.0 | 0.00 | 0.00 | 0.00 | 87 | |
| 20260505072946 | 48 | 327 | 8.0 | 10.0 | 0.00 | 0.00 | 0.00 | 87 | |
| 20260505072846 | 48 | 328 | 8.0 | 10.0 | 0.00 | 0.00 | 0.00 | 87 | |
| 20260505072747 | 48 | 329 | 8.0 | 10.0 | 0.00 | 0.00 | 0.00 | 87 | |
| 20260505072647 | 48 | 331 | 8.0 | 10.0 | 0.00 | 0.00 | 0.00 | 88 | |
| 20260505072546 | 48 | 330 | 8.0 | 10.0 | 0.00 | 0.00 | 0.00 | 88 | |
| 20260505072446 | 48 | 331 | 8.0 | 10.0 | 0.00 | 0.00 | 0.00 | 88 | |
| 20260505072346 | 48 | 331 | 8.0 | 10.0 | 0.00 | 0.00 | 0.00 | 88 | |
| 20260505072307 | 48 | 332 | 8.0 | 10.0 | 0.00 | 0.00 | 0.00 | 88 | |
| 20260505072146 | 48 | 334 | 8.0 | 11.0 | 0.00 | 0.00 | 0.00 | 88 | |
| 20260505072107 | 48 | 334 | 8.0 | 11.0 | 0.00 | 0.00 | 0.00 | 88 | |
| 20260505071946 | 48 | 337 | 8.0 | 11.0 | 0.00 | 0.00 | 0.00 | 88 | |
| 20260505071846 | 48 | 337 | 8.0 | 11.0 | 0.00 | 0.00 | 0.00 | 88 | |
| 20260505071746 | 48 | 336 | 8.0 | 11.0 | 0.00 | 0.00 | 0.00 | 88 | |
| 20260505071646 | 48 | 335 | 8.0 | 11.0 | 0.00 | 0.00 | 0.00 | 88 | |
| 20260505071546 | 48 | 334 | 8.0 | 11.0 | 0.00 | 0.00 | 0.00 | 88 | |
| 20260505071446 | 47 | 334 | 8.0 | 11.0 | 0.00 | 0.00 | 0.00 | 88 | |
| 20260505071407 | 47 | 334 | 9.0 | 11.0 | 0.00 | 0.00 | 0.00 | 88 | |
| 20260505071246 | 47 | 333 | 8.0 | 11.0 | 0.00 | 0.00 | 0.00 | 89 | |
| 20260505071146 | 47 | 332 | 8.0 | 11.0 | 0.00 | 0.00 | 0.00 | 89 | |
| 20260505071046 | 47 | 331 | 8.0 | 11.0 | 0.00 | 0.00 | 0.00 | 88 | |
| 20260505070946 | 47 | 331 | 8.0 | 11.0 | 0.00 | 0.00 | 0.00 | 88 | |
| 20260505070846 | 47 | 330 | 9.0 | 12.0 | 0.00 | 0.00 | 0.00 | 88 | |
| 20260505070746 | 47 | 331 | 9.0 | 12.0 | 0.00 | 0.00 | 0.00 | 89 | |
| 20260505070646 | 47 | 331 | 8.0 | 12.0 | 0.00 | 0.00 | 0.00 | 89 | |
| 20260505070607 | 47 | 331 | 8.0 | 12.0 | 0.00 | 0.00 | 0.00 | 89 | |
| 20260505070507 | 47 | 333 | 9.0 | 12.0 | 0.00 | 0.00 | 0.00 | 89 | |
| 20260505070346 | 47 | 333 | 8.0 | 12.0 | 0.00 | 0.00 | 0.00 | 90 | |
| 20260505070247 | 47 | 333 | 8.0 | 12.0 | 0.00 | 0.00 | 0.00 | 89 | |
| 20260505070146 | 47 | 334 | 8.0 | 12.0 | 0.00 | 0.00 | 0.00 | 89 | |
| 20260505070046 | 46 | 334 | 8.0 | 12.0 | 0.00 | 0.00 | 0.00 | 90 | |
| 20260505065947 | 46 | 334 | 8.0 | 12.0 | 0.00 | 0.00 | 0.00 | 90 | |
| 20260505065907 | 46 | 334 | 8.0 | 11.0 | 0.00 | 0.00 | 0.00 | 90 | |
| 20260505065747 | 46 | 333 | 8.0 | 10.0 | 0.00 | 0.00 | 0.00 | 90 | |
| 20260505065646 | 46 | 333 | 8.0 | 10.0 | 0.00 | 0.00 | 0.00 | 90 | |
| 20260505065607 | 46 | 331 | 8.0 | 10.0 | 0.00 | 0.00 | 0.00 | 90 | |
| 20260505065446 | 46 | 328 | 8.0 | 10.0 | 0.00 | 0.00 | 0.00 | 91 | |
| 20260505065346 | 46 | 327 | 8.0 | 10.0 | 0.00 | 0.00 | 0.00 | 91 | |
| 20260505065307 | 46 | 326 | 8.0 | 10.0 | 0.00 | 0.00 | 0.00 | 91 | |
| 20260505065146 | 46 | 323 | 8.0 | 10.0 | 0.00 | 0.00 | 0.00 | 91 | |
| 20260505065107 | 46 | 321 | 8.0 | 10.0 | 0.00 | 0.00 | 0.00 | 91 | |
| 20260505064946 | 46 | 320 | 8.0 | 10.0 | 0.00 | 0.00 | 0.00 | 91 | |
| 20260505064846 | 46 | 319 | 8.0 | 10.0 | 0.00 | 0.00 | 0.00 | 91 | |
| 20260505064808 | 46 | 319 | 8.0 | 10.0 | 0.00 | 0.00 | 0.00 | 91 | |
| 20260505064708 | 45 | 318 | 8.0 | 10.0 | 0.00 | 0.00 | 0.00 | 91 | |
| 20260505064546 | 45 | 319 | 8.0 | 10.0 | 0.00 | 0.00 | 0.00 | 91 | |
| 20260505064507 | 45 | 320 | 8.0 | 10.0 | 0.00 | 0.00 | 0.00 | 91 | |
| 20260505064346 | 45 | 320 | 8.0 | 10.0 | 0.00 | 0.00 | 0.00 | 91 | |
| 20260505064246 | 45 | 320 | 8.0 | 10.0 | 0.00 | 0.00 | 0.00 | 91 | |
| 20260505064146 | 45 | 321 | 8.0 | 10.0 | 0.00 | 0.00 | 0.00 | 91 | |
| 20260505064046 | 45 | 322 | 8.0 | 10.0 | 0.00 | 0.00 | 0.00 | 91 | |
| 20260505063946 | 45 | 323 | 8.0 | 10.0 | 0.00 | 0.00 | 0.00 | 91 | |
| 20260505063846 | 45 | 323 | 8.0 | 10.0 | 0.00 | 0.00 | 0.00 | 91 | |
| 20260505063746 | 45 | 323 | 8.0 | 10.0 | 0.00 | 0.00 | 0.00 | 91 | |
| 20260505063646 | 45 | 322 | 8.0 | 10.0 | 0.00 | 0.00 | 0.00 | 91 | |
| 20260505063546 | 45 | 321 | 8.0 | 10.0 | 0.00 | 0.00 | 0.00 | 92 | |
| 20260505063446 | 45 | 321 | 8.0 | 10.0 | 0.00 | 0.00 | 0.00 | 92 | |
| 20260505063346 | 45 | 320 | 8.0 | 10.0 | 0.00 | 0.00 | 0.00 | 92 | |
| 20260505063307 | 45 | 320 | 8.0 | 11.0 | 0.00 | 0.00 | 0.00 | 92 | |
| 20260505063146 | 45 | 321 | 8.0 | 11.0 | 0.00 | 0.00 | 0.00 | 92 | |
| 20260505063047 | 45 | 321 | 8.0 | 11.0 | 0.00 | 0.00 | 0.00 | 92 | |
| 20260505062946 | 45 | 320 | 8.0 | 11.0 | 0.00 | 0.00 | 0.00 | 92 | |
| 20260505062846 | 45 | 319 | 8.0 | 11.0 | 0.00 | 0.00 | 0.00 | 92 | |
| 20260505062746 | 45 | 318 | 8.0 | 11.0 | 0.00 | 0.00 | 0.00 | 92 | |
| 20260505062646 | 45 | 317 | 8.0 | 11.0 | 0.00 | 0.00 | 0.00 | 92 | |
| 20260505062546 | 45 | 317 | 7.0 | 11.0 | 0.00 | 0.00 | 0.00 | 92 | |
| 20260505062446 | 45 | 316 | 7.0 | 11.0 | 0.00 | 0.00 | 0.00 | 92 | |
| 20260505062407 | 45 | 315 | 7.0 | 11.0 | 0.00 | 0.00 | 0.00 | 92 | |
| 20260505062246 | 45 | 312 | 7.0 | 10.0 | 0.00 | 0.00 | 0.00 | 92 | |
| 20260505062146 | 45 | 311 | 7.0 | 9.0 | 0.00 | 0.00 | 0.00 | 92 | |
| 20260505062046 | 45 | 310 | 7.0 | 9.0 | 0.00 | 0.00 | 0.00 | 92 | |
| 20260505061946 | 44 | 310 | 7.0 | 9.0 | 0.00 | 0.00 | 0.00 | 92 | |
| 20260505061846 | 44 | 309 | 7.0 | 9.0 | 0.00 | 0.00 | 0.00 | 92 | |
| 20260505061745 | 44 | 310 | 7.0 | 11.0 | 0.00 | 0.00 | 0.00 | 92 | |
| 20260505061646 | 44 | 310 | 7.0 | 11.0 | 0.00 | 0.00 | 0.00 | 92 | |
| 20260505061545 | 44 | 310 | 7.0 | 11.0 | 0.00 | 0.00 | 0.00 | 92 | |
| 20260505061446 | 44 | 310 | 7.0 | 11.0 | 0.00 | 0.00 | 0.00 | 92 | |
| 20260505061407 | 44 | 309 | 7.0 | 11.0 | 0.00 | 0.00 | 0.00 | 92 | |
| 20260505061246 | 44 | 310 | 7.0 | 11.0 | 0.00 | 0.00 | 0.00 | 92 | |
| 20260505061146 | 44 | 310 | 7.0 | 11.0 | 0.00 | 0.00 | 0.00 | 92 | |
| 20260505061046 | 44 | 310 | 7.0 | 11.0 | 0.00 | 0.00 | 0.00 | 92 | |
| 20260505061007 | 44 | 310 | 7.0 | 11.0 | 0.00 | 0.00 | 0.00 | 92 | |
| 20260505060847 | 44 | 310 | 8.0 | 11.0 | 0.00 | 0.00 | 0.00 | 92 | |
| 20260505060746 | 44 | 309 | 7.0 | 11.0 | 0.00 | 0.00 | 0.00 | 92 | |
| 20260505060646 | 44 | 308 | 7.0 | 10.0 | 0.00 | 0.00 | 0.00 | 92 | |
| 20260505060546 | 44 | 308 | 7.0 | 10.0 | 0.00 | 0.00 | 0.00 | 93 | |
| 20260505060446 | 44 | 308 | 7.0 | 10.0 | 0.00 | 0.00 | 0.00 | 92 | |
| 20260505060346 | 44 | 307 | 8.0 | 10.0 | 0.00 | 0.00 | 0.00 | 92 | |
| 20260505060246 | 44 | 306 | 8.0 | 10.0 | 0.00 | 0.00 | 0.00 | 92 | |
| 20260505060146 | 44 | 306 | 8.0 | 10.0 | 0.00 | 0.00 | 0.00 | 92 | |
| 20260505060107 | 44 | 306 | 8.0 | 10.0 | 0.00 | 0.00 | 0.00 | 92 | |
| 20260505055946 | 44 | 304 | 8.0 | 10.0 | 0.00 | 0.00 | 0.00 | 93 | |
| 20260505055846 | 44 | 303 | 8.0 | 10.0 | 0.00 | 0.00 | 0.00 | 92 | |
| 20260505055747 | 44 | 303 | 8.0 | 10.0 | 0.00 | 0.00 | 0.00 | 92 | |
| 20260505055646 | 44 | 302 | 8.0 | 10.0 | 0.00 | 0.00 | 0.00 | 92 | |
| 20260505055607 | 44 | 302 | 7.0 | 10.0 | 0.00 | 0.00 | 0.00 | 92 | |
| 20260505055507 | 44 | 301 | 7.0 | 10.0 | 0.00 | 0.00 | 0.00 | 93 | |
| 20260505055346 | 43 | 300 | 7.0 | 9.0 | 0.00 | 0.00 | 0.00 | 92 | |
| 20260505055246 | 43 | 299 | 7.0 | 9.0 | 0.00 | 0.00 | 0.00 | 93 | |
| 20260505055207 | 43 | 298 | 7.0 | 9.0 | 0.00 | 0.00 | 0.00 | 93 | |
| 20260505055107 | 43 | 297 | 7.0 | 9.0 | 0.00 | 0.00 | 0.00 | 93 | |
| 20260505054946 | 43 | 297 | 7.0 | 9.0 | 0.00 | 0.00 | 0.00 | 93 | |
| 20260505054907 | 43 | 297 | 7.0 | 9.0 | 0.00 | 0.00 | 0.00 | 93 | |
| 20260505054746 | 43 | 297 | 7.0 | 8.0 | 0.00 | 0.00 | 0.00 | 92 | |
| 20260505054646 | 43 | 297 | 7.0 | 8.0 | 0.00 | 0.00 | 0.00 | 92 | |
| 20260505054546 | 43 | 297 | 7.0 | 8.0 | 0.00 | 0.00 | 0.00 | 92 | |
| 20260505054446 | 43 | 298 | 7.0 | 8.0 | 0.00 | 0.00 | 0.00 | 92 | |
| 20260505054346 | 43 | 298 | 7.0 | 8.0 | 0.00 | 0.00 | 0.00 | 92 | |
| 20260505054246 | 43 | 299 | 7.0 | 8.0 | 0.00 | 0.00 | 0.00 | 92 | |
| 20260505054146 | 43 | 299 | 6.0 | 8.0 | 0.00 | 0.00 | 0.00 | 92 | |
| 20260505054046 | 43 | 300 | 6.0 | 8.0 | 0.00 | 0.00 | 0.00 | 92 | |
| 20260505053946 | 43 | 300 | 6.0 | 8.0 | 0.00 | 0.00 | 0.00 | 92 | |
| 20260505053907 | 43 | 301 | 6.0 | 8.0 | 0.00 | 0.00 | 0.00 | 92 | |
| 20260505053808 | 43 | 301 | 6.0 | 8.0 | 0.00 | 0.00 | 0.00 | 92 | |
| 20260505053646 | 43 | 300 | 6.0 | 8.0 | 0.00 | 0.00 | 0.00 | 92 | |
| 20260505053546 | 43 | 300 | 6.0 | 8.0 | 0.00 | 0.00 | 0.00 | 92 | |
| 20260505053446 | 43 | 299 | 6.0 | 9.0 | 0.00 | 0.00 | 0.00 | 92 | |
| 20260505053350 | 43 | 299 | 6.0 | 9.0 | 0.00 | 0.00 | 0.00 | 92 | |
| 20260505053247 | 43 | 299 | 6.0 | 9.0 | 0.00 | 0.00 | 0.00 | 92 | |
| 20260505053147 | 43 | 298 | 7.0 | 9.0 | 0.00 | 0.00 | 0.00 | 92 | |
| 20260505053047 | 43 | 298 | 7.0 | 9.0 | 0.00 | 0.00 | 0.00 | 92 | |
| 20260505053007 | 43 | 298 | 7.0 | 9.0 | 0.00 | 0.00 | 0.00 | 92 | |
| 20260505052848 | 43 | 298 | 7.0 | 9.0 | 0.00 | 0.00 | 0.00 | 92 | |
| 20260505052746 | 43 | 298 | 7.0 | 9.0 | 0.00 | 0.00 | 0.00 | 92 | |
| 20260505052646 | 43 | 299 | 7.0 | 9.0 | 0.00 | 0.00 | 0.00 | 92 | |
| 20260505052546 | 43 | 299 | 8.0 | 9.0 | 0.00 | 0.00 | 0.00 | 92 | |
| 20260505052446 | 43 | 300 | 8.0 | 9.0 | 0.00 | 0.00 | 0.00 | 92 | |
| 20260505052346 | 43 | 300 | 8.0 | 9.0 | 0.00 | 0.00 | 0.00 | 92 | |
| 20260505052246 | 43 | 301 | 8.0 | 9.0 | 0.00 | 0.00 | 0.00 | 92 | |
| 20260505052207 | 43 | 301 | 8.0 | 9.0 | 0.00 | 0.00 | 0.00 | 92 | |
| 20260505052047 | 43 | 301 | 8.0 | 9.0 | 0.00 | 0.00 | 0.00 | 92 | |
| 20260505051946 | 43 | 300 | 8.0 | 9.0 | 0.00 | 0.00 | 0.00 | 92 | |
| 20260505051907 | 43 | 300 | 8.0 | 9.0 | 0.00 | 0.00 | 0.00 | 92 | |
| 20260505051807 | 43 | 300 | 8.0 | 9.0 | 0.00 | 0.00 | 0.00 | 92 | |
| 20260505051646 | 43 | 300 | 8.0 | 9.0 | 0.00 | 0.00 | 0.00 | 92 | |
| 20260505051546 | 43 | 299 | 8.0 | 9.0 | 0.00 | 0.00 | 0.00 | 92 | |
| 20260505051446 | 43 | 299 | 8.0 | 9.0 | 0.00 | 0.00 | 0.00 | 92 | |
| 20260505051346 | 43 | 298 | 8.0 | 9.0 | 0.00 | 0.00 | 0.00 | 92 | |
| 20260505051246 | 43 | 298 | 8.0 | 9.0 | 0.00 | 0.00 | 0.00 | 92 | |
| 20260505051146 | 43 | 297 | 8.0 | 9.0 | 0.00 | 0.00 | 0.00 | 92 | |
| 20260505051046 | 43 | 297 | 8.0 | 10.0 | 0.00 | 0.00 | 0.00 | 92 | |
| 20260505050946 | 43 | 296 | 8.0 | 10.0 | 0.00 | 0.00 | 0.00 | 92 | |
| 20260505050908 | 43 | 296 | 8.0 | 10.0 | 0.00 | 0.00 | 0.00 | 92 | |
| 20260505050807 | 43 | 295 | 8.0 | 10.0 | 0.00 | 0.00 | 0.00 | 92 | |
| 20260505050646 | 43 | 294 | 8.0 | 10.0 | 0.00 | 0.00 | 0.00 | 92 | |
| 20260505050546 | 43 | 294 | 8.0 | 10.0 | 0.00 | 0.00 | 0.00 | 92 | |
| 20260505050446 | 43 | 294 | 8.0 | 10.0 | 0.00 | 0.00 | 0.00 | 92 | |
| 20260505050346 | 43 | 294 | 8.0 | 10.0 | 0.00 | 0.00 | 0.00 | 92 | |
| 20260505050245 | 43 | 293 | 8.0 | 10.0 | 0.00 | 0.00 | 0.00 | 92 | |
| 20260505050146 | 43 | 293 | 8.0 | 10.0 | 0.00 | 0.00 | 0.00 | 92 | |
| 20260505041746 | 43 | 286 | 6.0 | 7.0 | 0.00 | 0.00 | 0.00 | 92 | |
| 20260505041707 | 43 | 286 | 6.0 | 7.0 | 0.00 | 0.00 | 0.00 | 92 | |
| 20260505041548 | 43 | 286 | 6.0 | 7.0 | 0.00 | 0.00 | 0.00 | 92 | |
| 20260505041507 | 43 | 286 | 6.0 | 7.0 | 0.00 | 0.00 | 0.00 | 92 | |
| 20260505041346 | 43 | 286 | 5.0 | 7.0 | 0.00 | 0.00 | 0.00 | 92 | |
| 20260505041246 | 43 | 286 | 5.0 | 7.0 | 0.00 | 0.00 | 0.00 | 92 | |
| 20260505041146 | 43 | 286 | 5.0 | 7.0 | 0.00 | 0.00 | 0.00 | 92 | |
| 20260505041046 | 43 | 286 | 5.0 | 6.0 | 0.00 | 0.00 | 0.00 | 92 | |
| 20260505040946 | 43 | 286 | 5.0 | 6.0 | 0.00 | 0.00 | 0.00 | 92 | |
| 20260505040846 | 43 | 286 | 5.0 | 6.0 | 0.00 | 0.00 | 0.00 | 92 | |
| 20260505040746 | 43 | 286 | 5.0 | 6.0 | 0.00 | 0.00 | 0.00 | 92 | |
| 20260505040646 | 43 | 286 | 5.0 | 6.0 | 0.00 | 0.00 | 0.00 | 92 | |
| 20260505040546 | 43 | 286 | 5.0 | 6.0 | 0.00 | 0.00 | 0.00 | 92 | |
| 20260505040446 | 43 | 286 | 5.0 | 7.0 | 0.00 | 0.00 | 0.00 | 92 | |
| 20260505040346 | 43 | 286 | 5.0 | 7.0 | 0.00 | 0.00 | 0.00 | 92 | |
| 20260505040246 | 43 | 286 | 5.0 | 7.0 | 0.00 | 0.00 | 0.00 | 92 | |
| 20260505040145 | 43 | 286 | 5.0 | 7.0 | 0.00 | 0.00 | 0.00 | 92 | |
| 20260505040046 | 43 | 286 | 5.0 | 7.0 | 0.00 | 0.00 | 0.00 | 92 | |
| 20260505035946 | 43 | 286 | 5.0 | 7.0 | 0.00 | 0.00 | 0.00 | 92 | |
| 20260505035907 | 44 | 286 | 5.0 | 7.0 | 0.00 | 0.00 | 0.00 | 92 | |
| 20260505035746 | 44 | 286 | 5.0 | 7.0 | 0.00 | 0.00 | 0.00 | 92 | |
| 20260505035646 | 44 | 286 | 5.0 | 7.0 | 0.00 | 0.00 | 0.00 | 92 | |
| 20260505035546 | 44 | 286 | 5.0 | 7.0 | 0.00 | 0.00 | 0.00 | 92 | |
| 20260505035446 | 44 | 286 | 5.0 | 7.0 | 0.00 | 0.00 | 0.00 | 92 | |
| 20260505035346 | 44 | 286 | 5.0 | 7.0 | 0.00 | 0.00 | 0.00 | 92 | |
| 20260505035308 | 44 | 286 | 5.0 | 7.0 | 0.00 | 0.00 | 0.00 | 92 | |
| 20260505035207 | 44 | 285 | 5.0 | 8.0 | 0.00 | 0.00 | 0.00 | 92 | |
| 20260505035046 | 44 | 282 | 6.0 | 8.0 | 0.00 | 0.00 | 0.00 | 92 | |
| 20260505034946 | 44 | 280 | 5.0 | 8.0 | 0.00 | 0.00 | 0.00 | 92 | |
| 20260505034847 | 44 | 278 | 5.0 | 8.0 | 0.00 | 0.00 | 0.00 | 92 | |
| 20260505034746 | 44 | 276 | 5.0 | 8.0 | 0.00 | 0.00 | 0.00 | 92 | |
| 20260505034646 | 44 | 274 | 5.0 | 8.0 | 0.00 | 0.00 | 0.00 | 92 | |
| 20260505034546 | 44 | 272 | 5.0 | 8.0 | 0.00 | 0.00 | 0.00 | 92 | |
| 20260505034446 | 44 | 271 | 5.0 | 8.0 | 0.00 | 0.00 | 0.00 | 92 | |
| 20260505034346 | 44 | 269 | 5.0 | 8.0 | 0.00 | 0.00 | 0.00 | 93 | |
| 20260505034246 | 44 | 267 | 4.0 | 8.0 | 0.00 | 0.00 | 0.00 | 93 | |
| 20260505034147 | 44 | 266 | 4.0 | 6.0 | 0.00 | 0.00 | 0.00 | 93 | |
| 20260505034046 | 44 | 266 | 4.0 | 6.0 | 0.00 | 0.00 | 0.00 | 93 | |
| 20260505033946 | 44 | 266 | 4.0 | 6.0 | 0.00 | 0.00 | 0.00 | 93 | |
| 20260505033846 | 44 | 266 | 4.0 | 6.0 | 0.00 | 0.00 | 0.00 | 93 | |
| 20260505033807 | 44 | 266 | 4.0 | 6.0 | 0.00 | 0.00 | 0.00 | 93 | |
| 20260505033646 | 44 | 266 | 4.0 | 5.0 | 0.00 | 0.00 | 0.00 | 93 | |
| 20260505033546 | 44 | 266 | 3.0 | 5.0 | 0.00 | 0.00 | 0.00 | 92 | |
| 20260505033447 | 44 | 266 | 4.0 | 5.0 | 0.00 | 0.00 | 0.00 | 92 | |
| 20260505033407 | 44 | 266 | 3.0 | 5.0 | 0.00 | 0.00 | 0.00 | 92 | |
| 20260505033246 | 44 | 266 | 4.0 | 5.0 | 0.00 | 0.00 | 0.00 | 93 | |
| 20260505033146 | 44 | 266 | 4.0 | 5.0 | 0.00 | 0.00 | 0.00 | 93 | |
| 20260505033107 | 44 | 266 | 4.0 | 5.0 | 0.00 | 0.00 | 0.00 | 93 | |
| 20260505032946 | 44 | 266 | 4.0 | 5.0 | 0.00 | 0.00 | 0.00 | 93 | |
| 20260505032846 | 44 | 266 | 4.0 | 5.0 | 0.00 | 0.00 | 0.00 | 93 | |
| 20260505032746 | 44 | 266 | 4.0 | 5.0 | 0.00 | 0.00 | 0.00 | 93 | |
| 20260505032647 | 44 | 266 | 4.0 | 5.0 | 0.00 | 0.00 | 0.00 | 93 | |
| 20260505032546 | 44 | 266 | 4.0 | 5.0 | 0.00 | 0.00 | 0.00 | 93 | |
| 20260505032448 | 44 | 266 | 3.0 | 5.0 | 0.00 | 0.00 | 0.00 | 93 | |
| 20260505032346 | 44 | 266 | 3.0 | 5.0 | 0.00 | 0.00 | 0.00 | 93 | |
| 20260505032246 | 45 | 266 | 3.0 | 5.0 | 0.00 | 0.00 | 0.00 | 93 | |
| 20260505032146 | 45 | 266 | 3.0 | 5.0 | 0.00 | 0.00 | 0.00 | 93 | |
| 20260505032047 | 45 | 266 | 3.0 | 5.0 | 0.00 | 0.00 | 0.00 | 93 | |
| 20260505032007 | 45 | 266 | 3.0 | 5.0 | 0.00 | 0.00 | 0.00 | 93 | |
| 20260505031846 | 45 | 266 | 2.0 | 5.0 | 0.00 | 0.00 | 0.00 | 93 | |
| 20260505031746 | 45 | 266 | 2.0 | 5.0 | 0.00 | 0.00 | 0.00 | 93 | |
| 20260505031646 | 45 | 266 | 2.0 | 5.0 | 0.00 | 0.00 | 0.00 | 93 | |
| 20260505031546 | 45 | 266 | 2.0 | 5.0 | 0.00 | 0.00 | 0.00 | 93 | |
| 20260505031446 | 45 | 266 | 2.0 | 5.0 | 0.00 | 0.00 | 0.00 | 93 | |
| 20260505031346 | 45 | 266 | 2.0 | 5.0 | 0.00 | 0.00 | 0.00 | 93 | |
| 20260505031246 | 45 | 266 | 2.0 | 5.0 | 0.00 | 0.00 | 0.00 | 93 | |
| 20260505031146 | 45 | 266 | 2.0 | 5.0 | 0.00 | 0.00 | 0.00 | 93 | |
| 20260505031107 | 45 | 266 | 3.0 | 5.0 | 0.00 | 0.00 | 0.00 | 93 | |
| 20260505030947 | 45 | 266 | 3.0 | 5.0 | 0.00 | 0.00 | 0.00 | 93 | |
| 20260505030908 | 45 | 266 | 3.0 | 5.0 | 0.00 | 0.00 | 0.00 | 93 | |
| 20260505030746 | 45 | 266 | 3.0 | 5.0 | 0.00 | 0.00 | 0.00 | 93 | |
| 20260505030646 | 45 | 266 | 4.0 | 5.0 | 0.00 | 0.00 | 0.00 | 93 | |
| 20260505030607 | 45 | 266 | 4.0 | 6.0 | 0.00 | 0.00 | 0.00 | 93 | |
| 20260505030508 | 45 | 266 | 4.0 | 7.0 | 0.00 | 0.00 | 0.00 | 93 | |
| 20260505030346 | 45 | 266 | 4.0 | 7.0 | 0.00 | 0.00 | 0.00 | 93 | |
| 20260505030246 | 45 | 266 | 4.0 | 7.0 | 0.00 | 0.00 | 0.00 | 93 | |
| 20260505030146 | 45 | 266 | 4.0 | 7.0 | 0.00 | 0.00 | 0.00 | 93 | |
| 20260505030109 | 45 | 266 | 5.0 | 7.0 | 0.00 | 0.00 | 0.00 | 93 | |
| 20260505030008 | 45 | 266 | 5.0 | 7.0 | 0.00 | 0.00 | 0.00 | 93 | |
| 20260505025846 | 45 | 266 | 5.0 | 7.0 | 0.00 | 0.00 | 0.00 | 93 | |
| 20260505025746 | 45 | 266 | 5.0 | 7.0 | 0.00 | 0.00 | 0.00 | 93 | |
| 20260505025646 | 45 | 266 | 5.0 | 7.0 | 0.00 | 0.00 | 0.00 | 93 | |
| 20260505025547 | 45 | 266 | 5.0 | 7.0 | 0.00 | 0.00 | 0.00 | 93 | |
| 20260505025446 | 45 | 266 | 5.0 | 7.0 | 0.00 | 0.00 | 0.00 | 93 | |
| 20260505025347 | 45 | 266 | 5.0 | 7.0 | 0.00 | 0.00 | 0.00 | 93 | |
| 20260505025246 | 45 | 266 | 5.0 | 7.0 | 0.00 | 0.00 | 0.00 | 93 | |
| 20260505025147 | 45 | 266 | 5.0 | 7.0 | 0.00 | 0.00 | 0.00 | 93 | |
| 20260505025046 | 45 | 266 | 5.0 | 7.0 | 0.00 | 0.00 | 0.00 | 93 | |
| 20260505024946 | 45 | 266 | 5.0 | 6.0 | 0.00 | 0.00 | 0.00 | 93 | |
| 20260505024907 | 45 | 266 | 5.0 | 6.0 | 0.00 | 0.00 | 0.00 | 93 | |
| 20260505024747 | 45 | 266 | 5.0 | 6.0 | 0.00 | 0.00 | 0.00 | 93 | |
| 20260505024647 | 45 | 266 | 5.0 | 7.0 | 0.00 | 0.00 | 0.00 | 93 | |
| 20260505024548 | 45 | 265 | 5.0 | 7.0 | 0.00 | 0.00 | 0.00 | 93 | |
| 20260505024446 | 45 | 264 | 5.0 | 7.0 | 0.00 | 0.00 | 0.00 | 93 | |
| 20260505024346 | 45 | 264 | 5.0 | 7.0 | 0.00 | 0.00 | 0.00 | 93 | |
| 20260505024246 | 46 | 263 | 5.0 | 7.0 | 0.00 | 0.00 | 0.00 | 93 | |
| 20260505024146 | 46 | 262 | 5.0 | 7.0 | 0.00 | 0.00 | 0.00 | 92 | |
| 20260505024107 | 46 | 261 | 5.0 | 7.0 | 0.00 | 0.00 | 0.00 | 92 | |
| 20260505023946 | 46 | 260 | 5.0 | 7.0 | 0.00 | 0.00 | 0.00 | 92 | |
| 20260505023846 | 46 | 259 | 5.0 | 7.0 | 0.00 | 0.00 | 0.00 | 92 | |
| 20260505023807 | 46 | 259 | 5.0 | 7.0 | 0.00 | 0.00 | 0.00 | 92 | |
| 20260505023646 | 46 | 257 | 5.0 | 7.0 | 0.00 | 0.00 | 0.00 | 92 | |
| 20260505023546 | 46 | 257 | 4.0 | 6.0 | 0.00 | 0.00 | 0.00 | 92 | |
| 20260505023447 | 46 | 257 | 4.0 | 6.0 | 0.00 | 0.00 | 0.00 | 93 | |
| 20260505023407 | 46 | 257 | 4.0 | 6.0 | 0.00 | 0.00 | 0.00 | 93 | |
| 20260505023246 | 46 | 257 | 4.0 | 6.0 | 0.00 | 0.00 | 0.00 | 93 | |
| 20260505023208 | 46 | 257 | 4.0 | 6.0 | 0.00 | 0.00 | 0.00 | 93 | |
| 20260505023107 | 46 | 257 | 4.0 | 6.0 | 0.00 | 0.00 | 0.00 | 93 | |
| 20260505022946 | 46 | 257 | 4.0 | 6.0 | 0.00 | 0.00 | 0.00 | 93 | |
| 20260505022846 | 46 | 257 | 4.0 | 6.0 | 0.00 | 0.00 | 0.00 | 92 | |
| 20260505022807 | 46 | 257 | 4.0 | 5.0 | 0.00 | 0.00 | 0.00 | 92 | |
| 20260505022647 | 46 | 257 | 4.0 | 6.0 | 0.00 | 0.00 | 0.00 | 93 | |
| 20260505022546 | 46 | 257 | 4.0 | 6.0 | 0.00 | 0.00 | 0.00 | 93 | |
| 20260505022446 | 46 | 257 | 4.0 | 7.0 | 0.00 | 0.00 | 0.00 | 92 | |
| 20260505022347 | 46 | 257 | 4.0 | 7.0 | 0.00 | 0.00 | 0.00 | 93 | |
| 20260505022246 | 46 | 257 | 4.0 | 7.0 | 0.00 | 0.00 | 0.00 | 93 | |
| 20260505022146 | 47 | 257 | 4.0 | 7.0 | 0.00 | 0.00 | 0.00 | 93 | |
| 20260505022046 | 47 | 257 | 4.0 | 7.0 | 0.00 | 0.00 | 0.00 | 93 | |
| 20260505021946 | 47 | 257 | 4.0 | 7.0 | 0.00 | 0.00 | 0.00 | 92 | |
| 20260505021907 | 47 | 257 | 5.0 | 7.0 | 0.00 | 0.00 | 0.00 | 92 | |
| 20260505021746 | 47 | 257 | 5.0 | 7.0 | 0.00 | 0.00 | 0.00 | 93 | |
| 20260505021646 | 47 | 256 | 5.0 | 7.0 | 0.00 | 0.00 | 0.00 | 93 | |
| 20260505021546 | 47 | 255 | 5.0 | 7.0 | 0.00 | 0.00 | 0.00 | 92 | |
| 20260505021446 | 47 | 255 | 5.0 | 7.0 | 0.00 | 0.00 | 0.00 | 93 | |
| 20260505021346 | 47 | 254 | 5.0 | 7.0 | 0.00 | 0.00 | 0.00 | 93 | |
| 20260505021246 | 47 | 252 | 5.0 | 7.0 | 0.00 | 0.00 | 0.00 | 93 | |
| 20260505021146 | 47 | 250 | 4.0 | 7.0 | 0.00 | 0.00 | 0.00 | 93 | |
| 20260505021107 | 47 | 249 | 5.0 | 7.0 | 0.00 | 0.00 | 0.00 | 93 | |
| 20260505020946 | 47 | 247 | 4.0 | 7.0 | 0.00 | 0.00 | 0.00 | 92 | |
| 20260505020846 | 47 | 244 | 4.0 | 7.0 | 0.00 | 0.00 | 0.00 | 93 | |
| 20260505020746 | 47 | 241 | 4.0 | 7.0 | 0.00 | 0.00 | 0.00 | 93 | |
| 20260505020646 | 47 | 237 | 4.0 | 7.0 | 0.00 | 0.00 | 0.00 | 93 | |
| 20260505020546 | 47 | 234 | 4.0 | 7.0 | 0.00 | 0.00 | 0.00 | 93 | |
| 20260505020446 | 47 | 231 | 4.0 | 7.0 | 0.00 | 0.00 | 0.00 | 93 | |
| 20260505020346 | 47 | 227 | 4.0 | 7.0 | 0.00 | 0.00 | 0.00 | 92 | |
| 20260505020246 | 47 | 224 | 5.0 | 6.0 | 0.00 | 0.00 | 0.00 | 93 | |
| 20260505020146 | 47 | 222 | 5.0 | 6.0 | 0.00 | 0.00 | 0.00 | 93 | |
| 20260505020046 | 47 | 219 | 5.0 | 6.0 | 0.00 | 0.00 | 0.00 | 93 | |
| 20260505015947 | 47 | 216 | 5.0 | 6.0 | 0.00 | 0.00 | 0.00 | 93 | |
| 20260505015908 | 47 | 215 | 4.0 | 6.0 | 0.00 | 0.00 | 0.00 | 93 | |
| 20260505015746 | 47 | 211 | 4.0 | 6.0 | 0.00 | 0.00 | 0.00 | 93 | |
| 20260505015646 | 47 | 209 | 4.0 | 6.0 | 0.00 | 0.00 | 0.00 | 93 | |
| 20260505015546 | 47 | 206 | 4.0 | 6.0 | 0.00 | 0.00 | 0.00 | 93 | |
| 20260505015447 | 47 | 204 | 4.0 | 5.0 | 0.00 | 0.00 | 0.00 | 93 | |
| 20260505015347 | 47 | 201 | 4.0 | 5.0 | 0.00 | 0.00 | 0.00 | 93 | |
| 20260505015246 | 47 | 200 | 4.0 | 5.0 | 0.00 | 0.00 | 0.00 | 93 | |
| 20260505015146 | 46 | 199 | 4.0 | 5.0 | 0.00 | 0.00 | 0.00 | 92 | |
| 20260505015046 | 46 | 198 | 3.0 | 5.0 | 0.00 | 0.00 | 0.00 | 92 | |
| 20260505014946 | 46 | 198 | 3.0 | 5.0 | 0.00 | 0.00 | 0.00 | 92 | |
| 20260505014846 | 46 | 198 | 3.0 | 5.0 | 0.00 | 0.00 | 0.00 | 92 | |
| 20260505014746 | 46 | 198 | 3.0 | 5.0 | 0.00 | 0.00 | 0.00 | 92 | |
| 20260505014647 | 46 | 198 | 3.0 | 5.0 | 0.00 | 0.00 | 0.00 | 92 | |
| 20260505014546 | 46 | 198 | 3.0 | 5.0 | 0.00 | 0.00 | 0.00 | 92 | |
| 20260505014508 | 46 | 198 | 3.0 | 5.0 | 0.00 | 0.00 | 0.00 | 92 | |
| 20260505014346 | 46 | 198 | 2.0 | 5.0 | 0.00 | 0.00 | 0.00 | 92 | |
| 20260505014246 | 46 | 198 | 2.0 | 4.0 | 0.00 | 0.00 | 0.00 | 91 | |
| 20260505014146 | 46 | 198 | 2.0 | 4.0 | 0.00 | 0.00 | 0.00 | 91 | |
| 20260505014046 | 46 | 198 | 2.0 | 4.0 | 0.00 | 0.00 | 0.00 | 91 | |
| 20260505013946 | 46 | 198 | 2.0 | 4.0 | 0.00 | 0.00 | 0.00 | 91 | |
| 20260505013907 | 46 | 198 | 2.0 | 4.0 | 0.00 | 0.00 | 0.00 | 91 | |
| 20260505013807 | 47 | 198 | 2.0 | 4.0 | 0.00 | 0.00 | 0.00 | 91 | |
| 20260505013646 | 47 | 198 | 2.0 | 4.0 | 0.00 | 0.00 | 0.00 | 91 | |
| 20260505013546 | 47 | 198 | 2.0 | 4.0 | 0.00 | 0.00 | 0.00 | 91 | |
| 20260505013447 | 47 | 198 | 2.0 | 4.0 | 0.00 | 0.00 | 0.00 | 91 | |
| 20260505013346 | 47 | 198 | 2.0 | 4.0 | 0.00 | 0.00 | 0.00 | 91 | |
| 20260505013246 | 47 | 198 | 2.0 | 4.0 | 0.00 | 0.00 | 0.00 | 91 | |
| 20260505013208 | 48 | 197 | 2.0 | 4.0 | 0.00 | 0.00 | 0.00 | 91 | |
| 20260505013046 | 48 | 198 | 2.0 | 4.0 | 0.00 | 0.00 | 0.00 | 92 | |
| 20260505013007 | 48 | 198 | 2.0 | 4.0 | 0.00 | 0.00 | 0.00 | 92 | |
| 20260505012846 | 48 | 198 | 2.0 | 4.0 | 0.00 | 0.00 | 0.00 | 92 | |
| 20260505012746 | 48 | 198 | 3.0 | 4.0 | 0.00 | 0.00 | 0.00 | 92 | |
| 20260505012647 | 48 | 198 | 3.0 | 4.0 | 0.00 | 0.00 | 0.00 | 92 | |
| 20260505012607 | 48 | 198 | 3.0 | 4.0 | 0.00 | 0.00 | 0.00 | 92 | |
| 20260505012446 | 48 | 197 | 3.0 | 5.0 | 0.00 | 0.00 | 0.00 | 92 | |
| 20260505012346 | 48 | 198 | 3.0 | 5.0 | 0.00 | 0.00 | 0.00 | 92 | |
| 20260505012246 | 48 | 197 | 3.0 | 5.0 | 0.00 | 0.00 | 0.00 | 92 | |
| 20260505012146 | 48 | 197 | 3.0 | 5.0 | 0.00 | 0.00 | 0.00 | 92 | |
| 20260505012046 | 48 | 197 | 3.0 | 5.0 | 0.00 | 0.00 | 0.00 | 92 | |
| 20260505011947 | 48 | 197 | 3.0 | 5.0 | 0.00 | 0.00 | 0.00 | 92 | |
| 20260505011846 | 48 | 197 | 3.0 | 5.0 | 0.00 | 0.00 | 0.00 | 92 | |
| 20260505011746 | 48 | 197 | 3.0 | 5.0 | 0.00 | 0.00 | 0.00 | 92 | |
| 20260505011646 | 48 | 197 | 3.0 | 5.0 | 0.00 | 0.00 | 0.00 | 92 | |
| 20260505011546 | 48 | 198 | 3.0 | 5.0 | 0.00 | 0.00 | 0.00 | 92 | |
| 20260505011448 | 48 | 198 | 3.0 | 5.0 | 0.00 | 0.00 | 0.00 | 92 | |
| 20260505011346 | 48 | 197 | 3.0 | 5.0 | 0.00 | 0.00 | 0.00 | 92 | |
| 20260505011307 | 48 | 197 | 3.0 | 5.0 | 0.00 | 0.00 | 0.00 | 92 | |
| 20260505011146 | 48 | 197 | 4.0 | 5.0 | 0.00 | 0.00 | 0.00 | 91 | |
| 20260505011046 | 48 | 197 | 4.0 | 5.0 | 0.00 | 0.00 | 0.00 | 92 | |
| 20260505010946 | 48 | 197 | 4.0 | 5.0 | 0.00 | 0.00 | 0.00 | 92 | |
| 20260505010907 | 48 | 197 | 4.0 | 5.0 | 0.00 | 0.00 | 0.00 | 92 | |
| 20260505010746 | 48 | 197 | 4.0 | 5.0 | 0.00 | 0.00 | 0.00 | 92 | |
| 20260505010646 | 48 | 197 | 3.0 | 5.0 | 0.00 | 0.00 | 0.00 | 92 | |
| 20260505010546 | 48 | 197 | 3.0 | 5.0 | 0.00 | 0.00 | 0.00 | 92 | |
| 20260505010446 | 48 | 197 | 3.0 | 5.0 | 0.00 | 0.00 | 0.00 | 92 | |
| 20260505010346 | 48 | 197 | 3.0 | 5.0 | 0.00 | 0.00 | 0.00 | 91 | |
| 20260505010246 | 48 | 197 | 3.0 | 5.0 | 0.00 | 0.00 | 0.00 | 91 | |
| 20260505010146 | 47 | 197 | 3.0 | 4.0 | 0.00 | 0.00 | 0.00 | 91 | |
| 20260505010046 | 47 | 197 | 3.0 | 4.0 | 0.00 | 0.00 | 0.00 | 91 | |
| 20260505005946 | 48 | 197 | 3.0 | 4.0 | 0.00 | 0.00 | 0.00 | 90 | |
| 20260505005846 | 48 | 197 | 2.0 | 4.0 | 0.00 | 0.00 | 0.00 | 91 | |
| 20260505005746 | 48 | 197 | 2.0 | 4.0 | 0.00 | 0.00 | 0.00 | 91 | |
| 20260505005646 | 48 | 197 | 2.0 | 4.0 | 0.00 | 0.00 | 0.00 | 91 | |
| 20260505005546 | 48 | 197 | 2.0 | 4.0 | 0.00 | 0.00 | 0.00 | 91 | |
| 20260505005446 | 48 | 197 | 2.0 | 4.0 | 0.00 | 0.00 | 0.00 | 91 | |
| 20260505005346 | 48 | 197 | 2.0 | 4.0 | 0.00 | 0.00 | 0.00 | 91 | |
| 20260505005247 | 48 | 197 | 1.0 | 4.0 | 0.00 | 0.00 | 0.00 | 90 | |
| 20260505005146 | 48 | 197 | 1.0 | 2.0 | 0.00 | 0.00 | 0.00 | 91 | |
| 20260505005046 | 48 | 197 | 1.0 | 2.0 | 0.00 | 0.00 | 0.00 | 91 | |
| 20260505004946 | 48 | 197 | 1.0 | 2.0 | 0.00 | 0.00 | 0.00 | 91 | |
| 20260505004846 | 48 | 197 | 1.0 | 2.0 | 0.00 | 0.00 | 0.00 | 91 | |
| 20260505004746 | 48 | 197 | 1.0 | 2.0 | 0.00 | 0.00 | 0.00 | 91 | |
| 20260505004646 | 48 | 197 | 1.0 | 3.0 | 0.00 | 0.00 | 0.00 | 91 | |
| 20260505004546 | 48 | 197 | 1.0 | 3.0 | 0.00 | 0.00 | 0.00 | 91 | |
| 20260505004447 | 48 | 197 | 2.0 | 3.0 | 0.00 | 0.00 | 0.00 | 91 | |
| 20260505004346 | 48 | 197 | 2.0 | 3.0 | 0.00 | 0.00 | 0.00 | 91 | |
| 20260505004246 | 48 | 197 | 2.0 | 3.0 | 0.00 | 0.00 | 0.00 | 91 | |
| 20260505004146 | 48 | 197 | 2.0 | 3.0 | 0.00 | 0.00 | 0.00 | 91 | |
| 20260505004046 | 48 | 197 | 2.0 | 3.0 | 0.00 | 0.00 | 0.00 | 91 | |
| 20260505003947 | 48 | 197 | 2.0 | 4.0 | 0.00 | 0.00 | 0.00 | 91 | |
| 20260505003846 | 48 | 197 | 2.0 | 4.0 | 0.00 | 0.00 | 0.00 | 91 | |
| 20260505003746 | 48 | 197 | 2.0 | 4.0 | 0.00 | 0.00 | 0.00 | 91 | |
| 20260505003646 | 48 | 197 | 2.0 | 4.0 | 0.00 | 0.00 | 0.00 | 91 | |
| 20260505003546 | 48 | 197 | 2.0 | 4.0 | 0.00 | 0.00 | 0.00 | 91 | |
| 20260505003446 | 48 | 197 | 2.0 | 4.0 | 0.00 | 0.00 | 0.00 | 91 | |
| 20260505003346 | 48 | 197 | 1.0 | 4.0 | 0.00 | 0.00 | 0.00 | 91 | |
| 20260505003246 | 48 | 197 | 1.0 | 4.0 | 0.00 | 0.00 | 0.00 | 91 | |
| 20260505003146 | 48 | 197 | 1.0 | 4.0 | 0.00 | 0.00 | 0.00 | 91 | |
| 20260505003046 | 48 | 197 | 1.0 | 4.0 | 0.00 | 0.00 | 0.00 | 91 | |
| 20260505002946 | 48 | 197 | 1.0 | 3.0 | 0.00 | 0.00 | 0.00 | 91 | |
| 20260505002846 | 48 | 197 | 0.0 | 2.0 | 0.00 | 0.00 | 0.00 | 91 | |
| 20260505002746 | 48 | 197 | 0.0 | 2.0 | 0.00 | 0.00 | 0.00 | 91 | |
| 20260505002646 | 48 | 197 | 0.0 | 2.0 | 0.00 | 0.00 | 0.00 | 91 | |
| 20260505002546 | 48 | 197 | 0.0 | 2.0 | 0.00 | 0.00 | 0.00 | 91 | |
| 20260505002446 | 48 | 197 | 0.0 | 2.0 | 0.00 | 0.00 | 0.00 | 91 | |
| 20260505002346 | 48 | 197 | 0.0 | 3.0 | 0.00 | 0.00 | 0.00 | 91 | |
| 20260505002246 | 48 | 197 | 0.0 | 3.0 | 0.00 | 0.00 | 0.00 | 91 | |
| 20260505002146 | 48 | 197 | 0.0 | 3.0 | 0.00 | 0.00 | 0.00 | 91 | |
| 20260505002046 | 48 | 197 | 1.0 | 3.0 | 0.00 | 0.00 | 0.00 | 91 | |
| 20260505001946 | 48 | 197 | 1.0 | 3.0 | 0.00 | 0.00 | 0.00 | 91 | |
| 20260505001908 | 48 | 197 | 1.0 | 4.0 | 0.00 | 0.00 | 0.00 | 91 | |
| 20260505001807 | 48 | 197 | 1.0 | 4.0 | 0.00 | 0.00 | 0.00 | 91 | |
| 20260505001646 | 48 | 197 | 1.0 | 4.0 | 0.00 | 0.00 | 0.00 | 91 | |
| 20260505001546 | 48 | 197 | 1.0 | 4.0 | 0.00 | 0.00 | 0.00 | 91 | |
| 20260505001446 | 48 | 197 | 1.0 | 4.0 | 0.00 | 0.00 | 0.00 | 91 | |
| 20260505001407 | 48 | 197 | 1.0 | 4.0 | 0.00 | 0.00 | 0.00 | 91 | |
| 20260505001246 | 48 | 197 | 1.0 | 4.0 | 0.00 | 0.00 | 0.00 | 91 | |
| 20260505001207 | 48 | 197 | 1.0 | 4.0 | 0.00 | 0.00 | 0.00 | 91 | |
| 20260505001108 | 48 | 197 | 1.0 | 4.0 | 0.00 | 0.00 | 0.00 | 91 | |
| 20260505000946 | 48 | 197 | 1.0 | 4.0 | 0.00 | 0.00 | 0.00 | 91 | |
| 20260505000907 | 48 | 197 | 1.0 | 4.0 | 0.00 | 0.00 | 0.00 | 91 | |
| 20260505000807 | 48 | 197 | 1.0 | 4.0 | 0.00 | 0.00 | 0.00 | 91 | |
| 20260505000707 | 48 | 197 | 1.0 | 5.0 | 0.00 | 0.00 | 0.00 | 91 | |
| 20260505000546 | 48 | 197 | 1.0 | 5.0 | 0.00 | 0.00 | 0.00 | 91 | |
| 20260505000507 | 48 | 197 | 1.0 | 5.0 | 0.00 | 0.00 | 0.00 | 91 | |
| 20260505000346 | 48 | 197 | 1.0 | 5.0 | 0.00 | 0.00 | 0.00 | 91 | |
| 20260505000246 | 48 | 197 | 1.0 | 5.0 | 0.00 | 0.00 | 0.00 | 91 | |
| 20260505000147 | 48 | 197 | 2.0 | 5.0 | 0.00 | 0.00 | 0.00 | 90 | |
| 20260505000107 | 48 | 197 | 2.0 | 5.0 | 0.00 | 0.00 | 0.00 | 90 | |
| 20260504235946 | 49 | 198 | 2.0 | 6.0 | 0.00 | 0.00 | 0.00 | 90 | |
| 20260504235846 | 49 | 199 | 2.0 | 6.0 | 0.00 | 0.00 | 0.00 | 90 | |
| 20260504235746 | 49 | 200 | 2.0 | 6.0 | 0.00 | 0.00 | 0.00 | 91 | |
| 20260504235646 | 49 | 201 | 1.0 | 6.0 | 0.00 | 0.00 | 0.00 | 90 | |
| 20260504235547 | 49 | 202 | 1.0 | 6.0 | 0.00 | 0.00 | 0.00 | 90 | |
| 20260504235446 | 49 | 203 | 1.0 | 6.0 | 0.00 | 0.00 | 0.00 | 90 | |
| 20260504235346 | 49 | 204 | 1.0 | 6.0 | 0.00 | 0.00 | 0.00 | 90 | |
| 20260504235246 | 49 | 205 | 1.0 | 6.0 | 0.00 | 0.00 | 0.00 | 90 | |
| 20260504235207 | 49 | 205 | 1.0 | 6.0 | 0.00 | 0.00 | 0.00 | 90 | |
| 20260504235046 | 49 | 208 | 1.0 | 5.0 | 0.00 | 0.00 | 0.00 | 90 | |
| 20260504234946 | 49 | 208 | 1.0 | 6.0 | 0.00 | 0.00 | 0.00 | 90 | |
| 20260504234907 | 49 | 209 | 2.0 | 6.0 | 0.00 | 0.00 | 0.00 | 90 | |
| 20260504234807 | 49 | 210 | 2.0 | 6.0 | 0.00 | 0.00 | 0.00 | 90 | |
| 20260504234646 | 49 | 211 | 2.0 | 6.0 | 0.00 | 0.00 | 0.00 | 91 | |
| 20260504234546 | 49 | 212 | 3.0 | 6.0 | 0.00 | 0.00 | 0.00 | 91 | |
| 20260504234447 | 49 | 213 | 3.0 | 6.0 | 0.00 | 0.00 | 0.00 | 91 | |
| 20260504234347 | 49 | 213 | 4.0 | 6.0 | 0.00 | 0.00 | 0.00 | 91 | |
| 20260504234246 | 49 | 214 | 4.0 | 6.0 | 0.00 | 0.00 | 0.00 | 91 | |
| 20260504234146 | 49 | 215 | 4.0 | 6.0 | 0.00 | 0.00 | 0.00 | 91 | |
| 20260504234047 | 49 | 215 | 4.0 | 7.0 | 0.00 | 0.00 | 0.00 | 91 | |
| 20260504233946 | 49 | 216 | 4.0 | 7.0 | 0.00 | 0.00 | 0.00 | 91 | |
| 20260504233846 | 49 | 217 | 5.0 | 7.0 | 0.00 | 0.00 | 0.00 | 91 | |
| 20260504233746 | 49 | 218 | 5.0 | 7.0 | 0.00 | 0.00 | 0.00 | 91 | |
| 20260504233707 | 49 | 218 | 5.0 | 7.0 | 0.00 | 0.00 | 0.00 | 91 | |
| 20260504233546 | 49 | 219 | 5.0 | 7.0 | 0.00 | 0.00 | 0.00 | 91 | |
| 20260504233508 | 49 | 220 | 5.0 | 7.0 | 0.00 | 0.00 | 0.00 | 91 | |
| 20260504233346 | 49 | 219 | 5.0 | 7.0 | 0.00 | 0.00 | 0.00 | 91 | |
| 20260504233246 | 49 | 218 | 5.0 | 7.0 | 0.00 | 0.00 | 0.00 | 91 | |
| 20260504233146 | 49 | 217 | 5.0 | 7.0 | 0.00 | 0.00 | 0.00 | 91 | |
| 20260504233046 | 49 | 216 | 5.0 | 7.0 | 0.00 | 0.00 | 0.00 | 91 | |
| 20260504232946 | 49 | 215 | 5.0 | 7.0 | 0.00 | 0.00 | 0.00 | 91 | |
| 20260504232907 | 49 | 214 | 5.0 | 7.0 | 0.00 | 0.00 | 0.00 | 91 | |
| 20260504232746 | 49 | 212 | 5.0 | 7.0 | 0.00 | 0.00 | 0.00 | 91 | |
| 20260504232646 | 49 | 211 | 5.0 | 7.0 | 0.00 | 0.00 | 0.00 | 91 | |
| 20260504232546 | 49 | 209 | 4.0 | 7.0 | 0.00 | 0.00 | 0.00 | 91 | |
| 20260504232446 | 49 | 208 | 4.0 | 6.0 | 0.00 | 0.00 | 0.00 | 91 | |
| 20260504232407 | 49 | 208 | 4.0 | 6.0 | 0.00 | 0.00 | 0.00 | 91 | |
| 20260504232307 | 49 | 207 | 4.0 | 6.0 | 0.00 | 0.00 | 0.00 | 91 | |
| 20260504232146 | 49 | 207 | 4.0 | 6.0 | 0.00 | 0.00 | 0.00 | 91 | |
| 20260504232046 | 49 | 207 | 3.0 | 6.0 | 0.00 | 0.00 | 0.00 | 91 | |
| 20260504231946 | 49 | 207 | 3.0 | 6.0 | 0.00 | 0.00 | 0.00 | 91 | |
| 20260504231847 | 49 | 207 | 3.0 | 5.0 | 0.00 | 0.00 | 0.00 | 91 | |
| 20260504231746 | 49 | 207 | 3.0 | 5.0 | 0.00 | 0.00 | 0.00 | 91 | |
| 20260504231647 | 48 | 207 | 3.0 | 5.0 | 0.00 | 0.00 | 0.00 | 91 | |
| 20260504231546 | 48 | 207 | 3.0 | 5.0 | 0.00 | 0.00 | 0.00 | 91 | |
| 20260504231446 | 48 | 207 | 4.0 | 5.0 | 0.00 | 0.00 | 0.00 | 90 | |
| 20260504231407 | 48 | 207 | 3.0 | 5.0 | 0.00 | 0.00 | 0.00 | 90 | |
| 20260504231307 | 48 | 207 | 3.0 | 5.0 | 0.00 | 0.00 | 0.00 | 90 | |
| 20260504231146 | 48 | 207 | 3.0 | 5.0 | 0.00 | 0.00 | 0.00 | 90 | |
| 20260504231046 | 48 | 207 | 3.0 | 5.0 | 0.00 | 0.00 | 0.00 | 90 | |
| 20260504230946 | 48 | 207 | 3.0 | 5.0 | 0.00 | 0.00 | 0.00 | 90 | |
| 20260504230908 | 48 | 207 | 2.0 | 5.0 | 0.00 | 0.00 | 0.00 | 90 | |
| 20260504230746 | 48 | 207 | 2.0 | 5.0 | 0.00 | 0.00 | 0.00 | 90 | |
| 20260504230646 | 48 | 207 | 2.0 | 5.0 | 0.00 | 0.00 | 0.00 | 90 | |
| 20260504230546 | 48 | 207 | 2.0 | 4.0 | 0.00 | 0.00 | 0.00 | 90 | |
| 20260504230446 | 48 | 207 | 2.0 | 5.0 | 0.00 | 0.00 | 0.00 | 90 | |
| 20260504230346 | 48 | 207 | 2.0 | 5.0 | 0.00 | 0.00 | 0.00 | 90 | |
| 20260504230246 | 48 | 207 | 3.0 | 5.0 | 0.00 | 0.00 | 0.00 | 90 | |
| 20260504230146 | 48 | 207 | 3.0 | 5.0 | 0.00 | 0.00 | 0.00 | 90 | |
| 20260504230046 | 48 | 207 | 3.0 | 5.0 | 0.00 | 0.00 | 0.00 | 90 | |
| 20260504225947 | 48 | 207 | 3.0 | 5.0 | 0.00 | 0.00 | 0.00 | 90 | |
| 20260504225846 | 48 | 207 | 3.0 | 5.0 | 0.00 | 0.00 | 0.00 | 90 | |
| 20260504225747 | 48 | 207 | 3.0 | 5.0 | 0.00 | 0.00 | 0.00 | 90 | |
| 20260504225646 | 48 | 207 | 3.0 | 5.0 | 0.00 | 0.00 | 0.00 | 90 | |
| 20260504225546 | 48 | 207 | 3.0 | 5.0 | 0.00 | 0.00 | 0.00 | 90 | |
| 20260504225446 | 48 | 207 | 2.0 | 4.0 | 0.00 | 0.00 | 0.00 | 90 | |
| 20260504225346 | 48 | 207 | 2.0 | 4.0 | 0.00 | 0.00 | 0.00 | 90 | |
| 20260504225246 | 48 | 207 | 2.0 | 4.0 | 0.00 | 0.00 | 0.00 | 90 | |
| 20260504225146 | 48 | 207 | 2.0 | 4.0 | 0.00 | 0.00 | 0.00 | 90 | |
| 20260504225046 | 48 | 207 | 2.0 | 4.0 | 0.00 | 0.00 | 0.00 | 90 | |
| 20260504224946 | 48 | 207 | 2.0 | 4.0 | 0.00 | 0.00 | 0.00 | 89 | |
| 20260504224846 | 48 | 207 | 1.0 | 4.0 | 0.00 | 0.00 | 0.00 | 89 | |
| 20260504224747 | 48 | 207 | 1.0 | 4.0 | 0.00 | 0.00 | 0.00 | 89 | |
| 20260504224646 | 48 | 207 | 1.0 | 4.0 | 0.00 | 0.00 | 0.00 | 89 | |
| 20260504224607 | 48 | 207 | 1.0 | 4.0 | 0.00 | 0.00 | 0.00 | 89 | |
| 20260504224508 | 48 | 207 | 1.0 | 4.0 | 0.00 | 0.00 | 0.00 | 89 | |
| 20260504224347 | 48 | 207 | 1.0 | 4.0 | 0.00 | 0.00 | 0.00 | 89 | |
| 20260504224247 | 48 | 207 | 2.0 | 4.0 | 0.00 | 0.00 | 0.00 | 89 | |
| 20260504224146 | 48 | 207 | 2.0 | 4.0 | 0.00 | 0.00 | 0.00 | 89 | |
| 20260504224046 | 48 | 207 | 2.0 | 4.0 | 0.00 | 0.00 | 0.00 | 89 | |
| 20260504223946 | 48 | 207 | 2.0 | 4.0 | 0.00 | 0.00 | 0.00 | 89 | |
| 20260504223846 | 48 | 207 | 2.0 | 4.0 | 0.00 | 0.00 | 0.00 | 89 | |
| 20260504223746 | 48 | 207 | 3.0 | 4.0 | 0.00 | 0.00 | 0.00 | 89 | |
| 20260504223646 | 49 | 207 | 3.0 | 5.0 | 0.00 | 0.00 | 0.00 | 89 | |
| 20260504223607 | 48 | 207 | 3.0 | 5.0 | 0.00 | 0.00 | 0.00 | 89 | |
| 20260504223446 | 49 | 207 | 3.0 | 5.0 | 0.00 | 0.00 | 0.00 | 89 | |
| 20260504223407 | 49 | 207 | 3.0 | 5.0 | 0.00 | 0.00 | 0.00 | 89 | |
| 20260504223247 | 49 | 207 | 3.0 | 5.0 | 0.00 | 0.00 | 0.00 | 89 | |
| 20260504223146 | 49 | 207 | 3.0 | 5.0 | 0.00 | 0.00 | 0.00 | 89 | |
| 20260504223107 | 49 | 207 | 3.0 | 5.0 | 0.00 | 0.00 | 0.00 | 89 | |
| 20260504222947 | 49 | 207 | 3.0 | 5.0 | 0.00 | 0.00 | 0.00 | 89 | |
| 20260504222846 | 49 | 207 | 3.0 | 5.0 | 0.00 | 0.00 | 0.00 | 89 | |
| 20260504222746 | 49 | 207 | 3.0 | 5.0 | 0.00 | 0.00 | 0.00 | 89 | |
| 20260504222646 | 49 | 207 | 3.0 | 5.0 | 0.00 | 0.00 | 0.00 | 89 | |
| 20260504222546 | 49 | 207 | 4.0 | 5.0 | 0.00 | 0.00 | 0.00 | 89 | |
| 20260504222507 | 49 | 207 | 4.0 | 5.0 | 0.00 | 0.00 | 0.00 | 89 | |
| 20260504222346 | 49 | 207 | 4.0 | 6.0 | 0.00 | 0.00 | 0.00 | 89 | |
| 20260504222246 | 49 | 207 | 4.0 | 7.0 | 0.00 | 0.00 | 0.00 | 89 | |
| 20260504222146 | 49 | 206 | 5.0 | 7.0 | 0.00 | 0.00 | 0.00 | 89 | |
| 20260504222046 | 49 | 206 | 5.0 | 7.0 | 0.00 | 0.00 | 0.00 | 89 | |
| 20260504221946 | 49 | 205 | 5.0 | 7.0 | 0.00 | 0.00 | 0.00 | 89 | |
| 20260504221846 | 49 | 205 | 5.0 | 7.0 | 0.00 | 0.00 | 0.00 | 89 | |
| 20260504221747 | 49 | 204 | 5.0 | 7.0 | 0.00 | 0.00 | 0.00 | 89 | |
| 20260504221646 | 49 | 204 | 5.0 | 7.0 | 0.00 | 0.00 | 0.00 | 89 | |
| 20260504221546 | 49 | 203 | 5.0 | 7.0 | 0.00 | 0.00 | 0.00 | 89 | |
| 20260504221507 | 49 | 203 | 5.0 | 7.0 | 0.00 | 0.00 | 0.00 | 89 | |
| 20260504221346 | 49 | 202 | 5.0 | 7.0 | 0.00 | 0.00 | 0.00 | 89 | |
| 20260504221246 | 49 | 202 | 5.0 | 7.0 | 0.00 | 0.00 | 0.00 | 89 | |
| 20260504221146 | 49 | 202 | 5.0 | 6.0 | 0.00 | 0.00 | 0.00 | 89 | |
| 20260504221046 | 49 | 202 | 5.0 | 6.0 | 0.00 | 0.00 | 0.00 | 89 | |
| 20260504220946 | 49 | 202 | 5.0 | 6.0 | 0.00 | 0.00 | 0.00 | 89 | |
| 20260504220846 | 49 | 202 | 5.0 | 6.0 | 0.00 | 0.00 | 0.00 | 89 | |
| 20260504220746 | 49 | 202 | 4.0 | 6.0 | 0.00 | 0.00 | 0.00 | 89 | |
| 20260504220646 | 49 | 202 | 4.0 | 6.0 | 0.00 | 0.00 | 0.00 | 89 | |
| 20260504220546 | 49 | 202 | 4.0 | 6.0 | 0.00 | 0.00 | 0.00 | 88 | |
| 20260504220446 | 49 | 201 | 4.0 | 6.0 | 0.00 | 0.00 | 0.00 | 88 | |
| 20260504220346 | 49 | 201 | 4.0 | 6.0 | 0.00 | 0.00 | 0.00 | 88 | |
| 20260504220246 | 49 | 201 | 4.0 | 6.0 | 0.00 | 0.00 | 0.00 | 88 | |
| 20260504220146 | 49 | 201 | 4.0 | 6.0 | 0.00 | 0.00 | 0.00 | 88 | |
| 20260504220046 | 49 | 201 | 4.0 | 6.0 | 0.00 | 0.00 | 0.00 | 88 | |
| 20260504220008 | 49 | 201 | 4.0 | 6.0 | 0.00 | 0.00 | 0.00 | 88 | |
| 20260504215846 | 49 | 201 | 4.0 | 6.0 | 0.00 | 0.00 | 0.00 | 88 | |
| 20260504215807 | 49 | 201 | 4.0 | 6.0 | 0.00 | 0.00 | 0.00 | 88 | |
| 20260504215646 | 49 | 201 | 4.0 | 6.0 | 0.00 | 0.00 | 0.00 | 88 | |
| 20260504215546 | 50 | 201 | 4.0 | 6.0 | 0.00 | 0.00 | 0.00 | 88 | |
| 20260504215507 | 50 | 201 | 4.0 | 6.0 | 0.00 | 0.00 | 0.00 | 88 | |
| 20260504215346 | 50 | 201 | 4.0 | 6.0 | 0.00 | 0.00 | 0.00 | 88 | |
| 20260504215307 | 50 | 201 | 4.0 | 6.0 | 0.00 | 0.00 | 0.00 | 88 | |
| 20260504215146 | 50 | 201 | 5.0 | 6.0 | 0.00 | 0.00 | 0.00 | 88 | |
| 20260504215046 | 50 | 201 | 5.0 | 6.0 | 0.00 | 0.00 | 0.00 | 88 | |
| 20260504214946 | 50 | 200 | 5.0 | 6.0 | 0.00 | 0.00 | 0.00 | 88 | |
| 20260504214907 | 50 | 200 | 5.0 | 6.0 | 0.00 | 0.00 | 0.00 | 88 | |
| 20260504214808 | 50 | 200 | 5.0 | 6.0 | 0.00 | 0.00 | 0.00 | 88 | |
| 20260504214647 | 50 | 199 | 5.0 | 6.0 | 0.00 | 0.00 | 0.00 | 88 | |
| 20260504214546 | 50 | 198 | 5.0 | 6.0 | 0.00 | 0.00 | 0.00 | 88 | |
| 20260504214508 | 50 | 197 | 5.0 | 6.0 | 0.00 | 0.00 | 0.00 | 88 | |
| 20260504214347 | 50 | 196 | 5.0 | 6.0 | 0.00 | 0.00 | 0.00 | 88 | |
| 20260504214308 | 50 | 195 | 5.0 | 6.0 | 0.00 | 0.00 | 0.00 | 88 | |
| 20260504214147 | 50 | 193 | 5.0 | 6.0 | 0.00 | 0.00 | 0.00 | 88 | |
| 20260504214046 | 50 | 192 | 5.0 | 6.0 | 0.00 | 0.00 | 0.00 | 88 | |
| 20260504213946 | 50 | 191 | 5.0 | 6.0 | 0.00 | 0.00 | 0.00 | 88 | |
| 20260504213907 | 50 | 190 | 5.0 | 6.0 | 0.00 | 0.00 | 0.00 | 88 | |
| 20260504213746 | 50 | 188 | 4.0 | 6.0 | 0.00 | 0.00 | 0.00 | 88 | |
| 20260504213707 | 50 | 188 | 4.0 | 6.0 | 0.00 | 0.00 | 0.00 | 88 | |
| 20260504213546 | 50 | 187 | 4.0 | 6.0 | 0.00 | 0.00 | 0.00 | 87 | |
| 20260504213446 | 50 | 186 | 4.0 | 5.0 | 0.00 | 0.00 | 0.00 | 87 | |
| 20260504213347 | 50 | 186 | 4.0 | 5.0 | 0.00 | 0.00 | 0.00 | 87 | |
| 20260504213247 | 50 | 186 | 4.0 | 5.0 | 0.00 | 0.00 | 0.00 | 87 | |
| 20260504213146 | 50 | 186 | 4.0 | 5.0 | 0.00 | 0.00 | 0.00 | 87 | |
| 20260504213047 | 50 | 186 | 4.0 | 5.0 | 0.00 | 0.00 | 0.00 | 87 | |
| 20260504212946 | 50 | 186 | 4.0 | 5.0 | 0.00 | 0.00 | 0.00 | 87 | |
| 20260504212847 | 50 | 186 | 4.0 | 5.0 | 0.00 | 0.00 | 0.00 | 87 | |
| 20260504212746 | 50 | 185 | 3.0 | 5.0 | 0.00 | 0.00 | 0.00 | 87 | |
| 20260504212646 | 50 | 185 | 3.0 | 5.0 | 0.00 | 0.00 | 0.00 | 87 | |
| 20260504212546 | 50 | 185 | 3.0 | 5.0 | 0.00 | 0.00 | 0.00 | 87 | |
| 20260504212447 | 50 | 185 | 3.0 | 5.0 | 0.00 | 0.00 | 0.00 | 87 | |
| 20260504212348 | 50 | 185 | 3.0 | 5.0 | 0.00 | 0.00 | 0.00 | 87 | |
| 20260504212246 | 51 | 185 | 3.0 | 5.0 | 0.00 | 0.00 | 0.00 | 87 | |
| 20260504212147 | 51 | 185 | 3.0 | 5.0 | 0.00 | 0.00 | 0.00 | 86 | |
| 20260504212046 | 51 | 185 | 3.0 | 5.0 | 0.00 | 0.00 | 0.00 | 86 | |
| 20260504211947 | 51 | 185 | 3.0 | 5.0 | 0.00 | 0.00 | 0.00 | 86 | |
| 20260504211847 | 51 | 185 | 4.0 | 5.0 | 0.00 | 0.00 | 0.00 | 86 | |
| 20260504211746 | 51 | 185 | 4.0 | 5.0 | 0.00 | 0.00 | 0.00 | 86 | |
| 20260504211648 | 51 | 185 | 4.0 | 5.0 | 0.00 | 0.00 | 0.00 | 86 | |
| 20260504211608 | 51 | 185 | 4.0 | 5.0 | 0.00 | 0.00 | 0.00 | 86 | |
| 20260504211446 | 51 | 185 | 4.0 | 5.0 | 0.00 | 0.00 | 0.00 | 86 | |
| 20260504211346 | 51 | 184 | 4.0 | 5.0 | 0.00 | 0.00 | 0.00 | 86 | |
| 20260504211246 | 51 | 184 | 4.0 | 5.0 | 0.00 | 0.00 | 0.00 | 86 | |
| 20260504211147 | 51 | 184 | 4.0 | 5.0 | 0.00 | 0.00 | 0.00 | 86 | |
| 20260504211046 | 51 | 184 | 4.0 | 5.0 | 0.00 | 0.00 | 0.00 | 86 | |
| 20260504210946 | 51 | 183 | 4.0 | 5.0 | 0.00 | 0.00 | 0.00 | 86 | |
| 20260504210846 | 51 | 183 | 4.0 | 5.0 | 0.00 | 0.00 | 0.00 | 86 | |
| 20260504210747 | 51 | 183 | 4.0 | 5.0 | 0.00 | 0.00 | 0.00 | 86 | |
| 20260504210646 | 51 | 183 | 4.0 | 5.0 | 0.00 | 0.00 | 0.00 | 86 | |
| 20260504210546 | 51 | 183 | 3.0 | 5.0 | 0.00 | 0.00 | 0.00 | 86 | |
| 20260504210446 | 51 | 183 | 3.0 | 5.0 | 0.00 | 0.00 | 0.00 | 86 | |
| 20260504210408 | 51 | 182 | 3.0 | 5.0 | 0.00 | 0.00 | 0.00 | 86 | |
| 20260504210246 | 51 | 182 | 3.0 | 5.0 | 0.00 | 0.00 | 0.00 | 86 | |
| 20260504210148 | 51 | 182 | 3.0 | 5.0 | 0.00 | 0.00 | 0.00 | 86 | |
| 20260504210047 | 51 | 182 | 3.0 | 5.0 | 0.00 | 0.00 | 0.00 | 86 | |
| 20260504205947 | 51 | 182 | 3.0 | 5.0 | 0.00 | 0.00 | 0.00 | 86 | |
| 20260504205846 | 51 | 181 | 2.0 | 5.0 | 0.00 | 0.00 | 0.00 | 86 | |
| 20260504205746 | 51 | 181 | 2.0 | 5.0 | 0.00 | 0.00 | 0.00 | 86 | |
| 20260504205646 | 51 | 181 | 2.0 | 5.0 | 0.00 | 0.00 | 0.00 | 86 | |
| 20260504205546 | 51 | 181 | 2.0 | 5.0 | 0.00 | 0.00 | 0.00 | 86 | |
| 20260504205507 | 51 | 181 | 2.0 | 5.0 | 0.00 | 0.00 | 0.00 | 86 | |
| 20260504205347 | 51 | 181 | 2.0 | 5.0 | 0.00 | 0.00 | 0.00 | 86 | |
| 20260504205308 | 51 | 181 | 2.0 | 5.0 | 0.00 | 0.00 | 0.00 | 86 | |
| 20260504205146 | 51 | 181 | 1.0 | 5.0 | 0.00 | 0.00 | 0.00 | 86 | |
| 20260504205107 | 51 | 181 | 1.0 | 5.0 | 0.00 | 0.00 | 0.00 | 86 | |
| 20260504204946 | 51 | 181 | 1.0 | 5.0 | 0.00 | 0.00 | 0.00 | 86 | |
| 20260504204907 | 51 | 181 | 1.0 | 5.0 | 0.00 | 0.00 | 0.00 | 86 | |
| 20260504204747 | 51 | 181 | 1.0 | 4.0 | 0.00 | 0.00 | 0.00 | 86 | |
| 20260504204647 | 51 | 181 | 0.0 | 2.0 | 0.00 | 0.00 | 0.00 | 86 | |
| 20260504204546 | 52 | 181 | 1.0 | 4.0 | 0.00 | 0.00 | 0.00 | 86 | |
| 20260504204446 | 51 | 181 | 1.0 | 4.0 | 0.00 | 0.00 | 0.00 | 86 | |
| 20260504204346 | 51 | 181 | 1.0 | 4.0 | 0.00 | 0.00 | 0.00 | 86 | |
| 20260504204247 | 51 | 181 | 1.0 | 4.0 | 0.00 | 0.00 | 0.00 | 86 | |
| 20260504204146 | 51 | 181 | 1.0 | 4.0 | 0.00 | 0.00 | 0.00 | 86 | |
| 20260504204047 | 51 | 181 | 1.0 | 4.0 | 0.00 | 0.00 | 0.00 | 87 | |
| 20260504203947 | 51 | 181 | 2.0 | 4.0 | 0.00 | 0.00 | 0.00 | 86 | |
| 20260504203846 | 51 | 181 | 2.0 | 4.0 | 0.00 | 0.00 | 0.00 | 86 | |
| 20260504203746 | 51 | 181 | 2.0 | 4.0 | 0.00 | 0.00 | 0.00 | 86 | |
| 20260504203646 | 51 | 181 | 2.0 | 4.0 | 0.00 | 0.00 | 0.00 | 86 | |
| 20260504203546 | 51 | 181 | 2.0 | 4.0 | 0.00 | 0.00 | 0.00 | 86 | |
| 20260504203446 | 51 | 181 | 2.0 | 4.0 | 0.00 | 0.00 | 0.00 | 86 | |
| 20260504203346 | 51 | 181 | 1.0 | 4.0 | 0.00 | 0.00 | 0.00 | 86 | |
| 20260504203247 | 51 | 181 | 1.0 | 4.0 | 0.00 | 0.00 | 0.00 | 86 | |
| 20260504203146 | 51 | 181 | 1.0 | 4.0 | 0.00 | 0.00 | 0.00 | 86 | |
| 20260504203046 | 51 | 181 | 1.0 | 4.0 | 0.00 | 0.00 | 0.00 | 86 | |
| 20260504202946 | 51 | 181 | 1.0 | 4.0 | 0.00 | 0.00 | 0.00 | 86 | |
| 20260504202846 | 51 | 181 | 1.0 | 4.0 | 0.00 | 0.00 | 0.00 | 86 | |
| 20260504202807 | 51 | 181 | 1.0 | 4.0 | 0.00 | 0.00 | 0.00 | 86 | |
| 20260504202646 | 52 | 181 | 1.0 | 4.0 | 0.00 | 0.00 | 0.00 | 86 | |
| 20260504202608 | 52 | 181 | 1.0 | 4.0 | 0.00 | 0.00 | 0.00 | 86 | |
| 20260504202448 | 52 | 181 | 1.0 | 4.0 | 0.00 | 0.00 | 0.00 | 86 | |
| 20260504202347 | 52 | 181 | 1.0 | 4.0 | 0.00 | 0.00 | 0.00 | 86 | |
| 20260504202247 | 52 | 181 | 1.0 | 4.0 | 0.00 | 0.00 | 0.00 | 86 | |
| 20260504202146 | 52 | 181 | 1.0 | 4.0 | 0.00 | 0.00 | 0.00 | 86 | |
| 20260504202046 | 52 | 181 | 1.0 | 4.0 | 0.00 | 0.00 | 0.00 | 86 | |
| 20260504201946 | 52 | 181 | 1.0 | 4.0 | 0.00 | 0.00 | 0.00 | 86 | |
| 20260504201846 | 52 | 181 | 1.0 | 4.0 | 0.00 | 0.00 | 0.00 | 86 | |
| 20260504201746 | 52 | 181 | 1.0 | 4.0 | 0.00 | 0.00 | 0.00 | 86 | |
| 20260504201707 | 52 | 181 | 1.0 | 4.0 | 0.00 | 0.00 | 0.00 | 86 | |
| 20260504201546 | 52 | 181 | 1.0 | 3.0 | 0.00 | 0.00 | 0.00 | 86 | |
| 20260504201447 | 52 | 181 | 1.0 | 2.0 | 0.00 | 0.00 | 0.00 | 86 | |
| 20260504201347 | 52 | 181 | 1.0 | 4.0 | 0.00 | 0.00 | 0.00 | 86 | |
| 20260504201246 | 52 | 181 | 1.0 | 4.0 | 0.00 | 0.00 | 0.00 | 85 | |
| 20260504201146 | 52 | 181 | 1.0 | 4.0 | 0.00 | 0.00 | 0.00 | 85 | |
| 20260504201046 | 52 | 181 | 1.0 | 4.0 | 0.00 | 0.00 | 0.00 | 85 | |
| 20260504200948 | 52 | 181 | 1.0 | 4.0 | 0.00 | 0.00 | 0.00 | 85 | |
| 20260504200846 | 52 | 181 | 1.0 | 4.0 | 0.00 | 0.00 | 0.00 | 85 | |
| 20260504200807 | 52 | 181 | 1.0 | 4.0 | 0.00 | 0.00 | 0.00 | 85 | |
| 20260504200647 | 52 | 181 | 1.0 | 4.0 | 0.00 | 0.00 | 0.00 | 85 | |
| 20260504200546 | 52 | 181 | 2.0 | 4.0 | 0.00 | 0.00 | 0.00 | 85 | |
| 20260504200446 | 52 | 181 | 2.0 | 4.0 | 0.00 | 0.00 | 0.00 | 85 | |
| 20260504200347 | 52 | 181 | 2.0 | 4.0 | 0.00 | 0.00 | 0.00 | 85 | |
| 20260504200307 | 52 | 181 | 2.0 | 4.0 | 0.00 | 0.00 | 0.00 | 85 | |
| 20260504200146 | 52 | 181 | 2.0 | 4.0 | 0.00 | 0.00 | 0.00 | 85 | |
| 20260504200046 | 52 | 181 | 2.0 | 4.0 | 0.00 | 0.00 | 0.00 | 85 | |
| 20260504200008 | 52 | 181 | 2.0 | 4.0 | 0.00 | 0.00 | 0.00 | 85 | |
| 20260504195846 | 52 | 181 | 2.0 | 5.0 | 0.00 | 0.00 | 0.00 | 85 | |
| 20260504195746 | 52 | 181 | 2.0 | 5.0 | 0.00 | 0.00 | 0.00 | 85 | |
| 20260504195646 | 52 | 183 | 3.0 | 6.0 | 0.00 | 0.00 | 0.00 | 85 | |
| 20260504195546 | 52 | 184 | 2.0 | 6.0 | 0.00 | 0.00 | 0.00 | 85 | |
| 20260504195446 | 52 | 185 | 2.0 | 6.0 | 0.00 | 0.00 | 0.00 | 85 | |
| 20260504195347 | 52 | 187 | 3.0 | 6.0 | 0.00 | 0.00 | 0.00 | 85 | |
| 20260504195246 | 52 | 189 | 3.0 | 6.0 | 0.00 | 0.00 | 0.00 | 85 | |
| 20260504195147 | 52 | 191 | 3.0 | 6.0 | 0.00 | 0.00 | 0.00 | 85 | |
| 20260504195107 | 52 | 192 | 2.0 | 6.0 | 0.00 | 0.00 | 0.00 | 85 | |
| 20260504194946 | 52 | 194 | 2.0 | 6.0 | 0.00 | 0.00 | 0.00 | 85 | |
| 20260504194846 | 52 | 197 | 2.0 | 6.0 | 0.00 | 0.00 | 0.00 | 85 | |
| 20260504194746 | 52 | 199 | 2.0 | 6.0 | 0.00 | 0.00 | 0.00 | 85 | |
| 20260504194646 | 52 | 201 | 2.0 | 5.0 | 0.00 | 0.00 | 0.00 | 85 | |
| 20260504194546 | 52 | 201 | 2.0 | 5.0 | 0.00 | 0.00 | 0.00 | 85 | |
| 20260504194446 | 52 | 201 | 2.0 | 5.0 | 0.00 | 0.00 | 0.00 | 85 | |
| 20260504194346 | 52 | 201 | 1.0 | 5.0 | 0.00 | 0.00 | 0.00 | 85 | |
| 20260504194246 | 52 | 201 | 1.0 | 4.0 | 0.00 | 0.00 | 0.00 | 85 | |
| 20260504194146 | 52 | 201 | 1.0 | 4.0 | 0.00 | 0.00 | 0.00 | 85 | |
| 20260504194046 | 52 | 201 | 1.0 | 4.0 | 0.00 | 0.00 | 0.00 | 85 | |
| 20260504193946 | 52 | 201 | 1.0 | 4.0 | 0.00 | 0.00 | 0.00 | 84 | |
| 20260504193846 | 52 | 201 | 1.0 | 4.0 | 0.00 | 0.00 | 0.00 | 84 | |
| 20260504193746 | 52 | 201 | 1.0 | 4.0 | 0.00 | 0.00 | 0.00 | 84 | |
| 20260504193646 | 52 | 201 | 1.0 | 4.0 | 0.00 | 0.00 | 0.00 | 84 | |
| 20260504193546 | 52 | 201 | 1.0 | 4.0 | 0.00 | 0.00 | 0.00 | 84 | |
| 20260504193446 | 52 | 201 | 1.0 | 4.0 | 0.00 | 0.00 | 0.00 | 84 | |
| 20260504193346 | 52 | 201 | 1.0 | 4.0 | 0.00 | 0.00 | 0.00 | 84 | |
| 20260504193307 | 52 | 201 | 1.0 | 4.0 | 0.00 | 0.00 | 0.00 | 84 | |
| 20260504193207 | 52 | 201 | 0.0 | 4.0 | 0.00 | 0.00 | 0.00 | 84 | |
| 20260504193107 | 52 | 201 | 0.0 | 3.0 | 0.00 | 0.00 | 0.00 | 84 | |
| 20260504192946 | 52 | 201 | 1.0 | 5.0 | 0.00 | 0.00 | 0.00 | 83 | |
| 20260504192846 | 53 | 202 | 1.0 | 5.0 | 0.00 | 0.00 | 0.00 | 83 | |
| 20260504192746 | 53 | 205 | 1.0 | 5.0 | 0.00 | 0.00 | 0.00 | 83 | |
| 20260504192647 | 53 | 208 | 2.0 | 6.0 | 0.00 | 0.00 | 0.00 | 83 | |
| 20260504192607 | 53 | 211 | 2.0 | 6.0 | 0.00 | 0.00 | 0.00 | 83 | |
| 20260504192446 | 53 | 213 | 2.0 | 6.0 | 0.00 | 0.00 | 0.00 | 83 | |
| 20260504192346 | 53 | 214 | 2.0 | 6.0 | 0.00 | 0.00 | 0.00 | 83 | |
| 20260504192246 | 53 | 215 | 2.0 | 6.0 | 0.00 | 0.00 | 0.00 | 83 | |
| 20260504192146 | 53 | 216 | 2.0 | 6.0 | 0.00 | 0.00 | 0.00 | 83 | |
| 20260504192046 | 53 | 216 | 2.0 | 6.0 | 0.00 | 0.00 | 0.00 | 83 | |
| 20260504191946 | 53 | 217 | 2.0 | 6.0 | 0.00 | 0.00 | 0.00 | 83 | |
| 20260504191846 | 53 | 220 | 2.0 | 6.0 | 0.00 | 0.00 | 0.00 | 83 | |
| 20260504191807 | 53 | 223 | 1.0 | 6.0 | 0.00 | 0.00 | 0.00 | 83 | |
| 20260504191646 | 53 | 226 | 1.0 | 5.0 | 0.00 | 0.00 | 0.00 | 83 | |
| 20260504191547 | 53 | 226 | 1.0 | 4.0 | 0.00 | 0.00 | 0.00 | 83 | |
| 20260504191446 | 53 | 226 | 1.0 | 4.0 | 0.00 | 0.00 | 0.00 | 83 | |
| 20260504191346 | 53 | 226 | 1.0 | 4.0 | 0.00 | 0.00 | 0.00 | 83 | |
| 20260504191307 | 53 | 226 | 1.0 | 4.0 | 0.00 | 0.00 | 0.00 | 83 | |
| 20260504191146 | 53 | 226 | 1.0 | 4.0 | 0.00 | 0.00 | 0.00 | 83 | |
| 20260504191107 | 53 | 226 | 2.0 | 5.0 | 0.00 | 0.00 | 0.00 | 83 | |
| 20260504191007 | 53 | 226 | 2.0 | 5.0 | 0.00 | 0.00 | 0.00 | 83 | |
| 20260504190847 | 53 | 226 | 3.0 | 5.0 | 0.00 | 0.00 | 0.00 | 83 | |
| 20260504190746 | 53 | 226 | 3.0 | 5.0 | 0.00 | 0.00 | 0.00 | 83 | |
| 20260504190646 | 53 | 226 | 3.0 | 5.0 | 0.00 | 0.00 | 0.00 | 82 | |
| 20260504190607 | 53 | 226 | 4.0 | 5.0 | 0.00 | 0.00 | 0.00 | 82 | |
| 20260504190446 | 53 | 226 | 4.0 | 5.0 | 0.00 | 0.00 | 0.00 | 82 | |
| 20260504190346 | 53 | 226 | 4.0 | 5.0 | 0.00 | 0.00 | 0.00 | 82 | |
| 20260504190247 | 53 | 226 | 4.0 | 6.0 | 0.00 | 0.00 | 0.00 | 82 | |
| 20260504190146 | 53 | 226 | 4.0 | 6.0 | 0.00 | 0.00 | 0.00 | 82 | |
| 20260504190047 | 53 | 227 | 5.0 | 6.0 | 0.00 | 0.00 | 0.00 | 82 | |
| 20260504185946 | 53 | 228 | 5.0 | 6.0 | 0.00 | 0.00 | 0.00 | 81 | |
| 20260504185846 | 54 | 229 | 5.0 | 6.0 | 0.00 | 0.00 | 0.00 | 81 | |
| 20260504185747 | 54 | 231 | 5.0 | 6.0 | 0.00 | 0.00 | 0.00 | 81 | |
| 20260504185646 | 54 | 232 | 5.0 | 6.0 | 0.00 | 0.00 | 0.00 | 81 | |
| 20260504185547 | 54 | 234 | 5.0 | 6.0 | 0.00 | 0.00 | 0.00 | 80 | |
| 20260504185507 | 54 | 235 | 4.0 | 6.0 | 0.00 | 0.00 | 0.00 | 80 | |
| 20260504185346 | 54 | 238 | 4.0 | 6.0 | 0.00 | 0.00 | 0.00 | 80 | |
| 20260504185247 | 54 | 240 | 4.0 | 7.0 | 0.00 | 0.00 | 0.00 | 80 | |
| 20260504185207 | 54 | 241 | 4.0 | 7.0 | 0.00 | 0.00 | 0.00 | 80 | |
| 20260504185046 | 54 | 244 | 4.0 | 7.0 | 0.00 | 0.00 | 0.00 | 80 | |
| 20260504184946 | 54 | 245 | 4.0 | 7.0 | 0.00 | 0.00 | 0.00 | 79 | |
| 20260504184846 | 54 | 246 | 4.0 | 7.0 | 0.00 | 0.00 | 0.00 | 79 | |
| 20260504184746 | 55 | 247 | 5.0 | 7.0 | 0.00 | 0.00 | 0.00 | 79 | |
| 20260504184707 | 55 | 247 | 5.0 | 7.0 | 0.00 | 0.00 | 0.00 | 79 | |
| 20260504184546 | 55 | 248 | 5.0 | 8.0 | 0.00 | 0.00 | 0.00 | 79 | |
| 20260504184446 | 55 | 248 | 5.0 | 8.0 | 0.00 | 0.00 | 0.00 | 78 | |
| 20260504184346 | 55 | 248 | 5.0 | 8.0 | 0.00 | 0.00 | 0.00 | 78 | |
| 20260504184246 | 55 | 248 | 5.0 | 8.0 | 0.00 | 0.00 | 0.00 | 78 | |
| 20260504184207 | 55 | 247 | 5.0 | 8.0 | 0.00 | 0.00 | 0.00 | 78 | |
| 20260504184046 | 55 | 246 | 6.0 | 8.0 | 0.00 | 0.00 | 0.00 | 77 | |
| 20260504183946 | 55 | 245 | 6.0 | 8.0 | 0.00 | 0.00 | 0.00 | 77 | |
| 20260504183846 | 55 | 244 | 6.0 | 8.0 | 0.00 | 0.00 | 0.00 | 77 | |
| 20260504183746 | 55 | 242 | 6.0 | 8.0 | 0.00 | 0.00 | 0.00 | 77 | |
| 20260504183646 | 55 | 240 | 6.0 | 8.0 | 0.00 | 0.00 | 0.00 | 77 | |
| 20260504183546 | 55 | 237 | 5.0 | 8.0 | 0.00 | 0.00 | 0.00 | 76 | |
| 20260504183446 | 56 | 234 | 5.0 | 8.0 | 0.00 | 0.00 | 0.00 | 76 | |
| 20260504183346 | 56 | 232 | 5.0 | 8.0 | 0.00 | 0.00 | 0.00 | 76 | |
| 20260504183246 | 56 | 231 | 5.0 | 8.0 | 0.00 | 0.00 | 0.00 | 76 | |
| 20260504183146 | 56 | 230 | 4.0 | 8.0 | 0.00 | 0.00 | 0.00 | 75 | |
| 20260504183046 | 56 | 229 | 4.0 | 8.0 | 0.00 | 0.00 | 0.00 | 75 | |
| 20260504182947 | 56 | 227 | 4.0 | 8.0 | 0.00 | 0.00 | 0.00 | 75 | |
| 20260504182907 | 56 | 225 | 4.0 | 8.0 | 0.00 | 0.00 | 0.00 | 75 | |
| 20260504182747 | 56 | 218 | 4.0 | 7.0 | 0.00 | 0.00 | 0.00 | 75 | |
| 20260504182646 | 56 | 211 | 3.0 | 6.0 | 0.00 | 0.00 | 0.00 | 76 | |
| 20260504182607 | 56 | 208 | 3.0 | 5.0 | 0.00 | 0.00 | 0.00 | 76 | |
| 20260504182446 | 56 | 206 | 3.0 | 5.0 | 0.00 | 0.00 | 0.00 | 76 | |
| 20260504182246 | 56 | 206 | 3.0 | 5.0 | 0.00 | 0.00 | 0.00 | 75 | 1016.3 |
| 20260504182146 | 56 | 206 | 3.0 | 5.0 | 0.00 | 0.00 | 0.00 | 76 | 1016.3 |
| 20260504182046 | 56 | 206 | 3.0 | 5.0 | 0.00 | 0.00 | 0.00 | 76 | 1016.3 |
| 20260504181846 | 56 | 205 | 3.0 | 5.0 | 0.00 | 0.00 | 0.00 | 75 | 1010.6 |
| 20260504181746 | 56 | 205 | 3.0 | 6.0 | 0.00 | 0.00 | 0.00 | 75 | 1010.6 |
| 20260504181646 | 56 | 205 | 4.0 | 6.0 | 0.00 | 0.00 | 0.00 | 76 | 1010.6 |
| 20260504181546 | 56 | 205 | 4.0 | 8.0 | 0.00 | 0.00 | 0.00 | 76 | 1010.6 |
| 20260504181446 | 56 | 205 | 4.0 | 8.0 | 0.00 | 0.00 | 0.00 | 75 | 1010.6 |
| 20260504181347 | 56 | 205 | 4.0 | 8.0 | 0.00 | 0.00 | 0.00 | 75 | 1010.6 |
| 20260504181307 | 56 | 205 | 4.0 | 8.0 | 0.00 | 0.00 | 0.00 | 75 | 1010.6 |
| 20260504181146 | 56 | 205 | 4.0 | 8.0 | 0.00 | 0.00 | 0.00 | 75 | 1010.6 |
| 20260504181046 | 56 | 205 | 4.0 | 8.0 | 0.00 | 0.00 | 0.00 | 74 | 1010.6 |
| 20260504180946 | 56 | 205 | 4.0 | 8.0 | 0.00 | 0.00 | 0.00 | 75 | 1010.6 |
| 20260504180846 | 56 | 204 | 5.0 | 8.0 | 0.00 | 0.00 | 0.00 | 75 | 1010.6 |
| 20260504180746 | 56 | 204 | 5.0 | 8.0 | 0.00 | 0.00 | 0.00 | 75 | 1010.6 |
| 20260504180707 | 56 | 205 | 5.0 | 8.0 | 0.00 | 0.00 | 0.00 | 75 | 1010.6 |
| 20260504180546 | 56 | 205 | 4.0 | 8.0 | 0.00 | 0.00 | 0.00 | 75 | 1010.6 |
| 20260504180446 | 56 | 205 | 4.0 | 8.0 | 0.00 | 0.00 | 0.00 | 75 | 1010.6 |
| 20260504180347 | 56 | 206 | 5.0 | 8.0 | 0.00 | 0.00 | 0.00 | 75 | 1010.6 |
| 20260504180248 | 56 | 206 | 5.0 | 8.0 | 0.00 | 0.00 | 0.00 | 75 | 1010.6 |
| 20260504180208 | 56 | 206 | 5.0 | 8.0 | 0.00 | 0.00 | 0.00 | 75 | 1010.6 |
| 20260504180047 | 56 | 208 | 5.0 | 8.0 | 0.00 | 0.00 | 0.00 | 75 | 1010.6 |
| 20260504175946 | 56 | 210 | 5.0 | 8.0 | 0.00 | 0.00 | 0.00 | 75 | 1010.6 |
| 20260504175846 | 56 | 212 | 5.0 | 7.0 | 0.00 | 0.00 | 0.00 | 75 | 1010.6 |
| 20260504175747 | 56 | 213 | 5.0 | 7.0 | 0.00 | 0.00 | 0.00 | 75 | 1010.6 |
| 20260504175646 | 56 | 213 | 5.0 | 7.0 | 0.00 | 0.00 | 0.00 | 75 | 1010.6 |
| 20260504175546 | 56 | 212 | 5.0 | 7.0 | 0.00 | 0.00 | 0.00 | 75 | 1010.6 |
| 20260504175446 | 56 | 211 | 5.0 | 7.0 | 0.00 | 0.00 | 0.00 | 75 | 1010.6 |
| 20260504175346 | 56 | 210 | 4.0 | 7.0 | 0.00 | 0.00 | 0.00 | 75 | 1010.6 |
| 20260504175246 | 56 | 210 | 4.0 | 7.0 | 0.00 | 0.00 | 0.00 | 75 | 1010.6 |
| 20260504175146 | 56 | 209 | 4.0 | 7.0 | 0.00 | 0.00 | 0.00 | 75 | 1010.6 |
| 20260504175046 | 56 | 206 | 4.0 | 7.0 | 0.00 | 0.00 | 0.00 | 75 | 1010.6 |
| 20260504174947 | 56 | 204 | 3.0 | 7.0 | 0.00 | 0.00 | 0.00 | 75 | 1010.6 |
| 20260504174907 | 56 | 202 | 3.0 | 7.0 | 0.00 | 0.00 | 0.00 | 75 | 1010.6 |
| 20260504174746 | 56 | 197 | 3.0 | 7.0 | 0.00 | 0.00 | 0.00 | 74 | 1010.6 |
| 20260504174647 | 56 | 194 | 2.0 | 5.0 | 0.00 | 0.00 | 0.00 | 74 | 1010.6 |
| 20260504174607 | 56 | 193 | 2.0 | 5.0 | 0.00 | 0.00 | 0.00 | 74 | 1010.6 |
| 20260504174446 | 56 | 193 | 2.0 | 5.0 | 0.00 | 0.00 | 0.00 | 73 | 1010.6 |
| 20260504174347 | 56 | 193 | 2.0 | 4.0 | 0.00 | 0.00 | 0.00 | 73 | 1010.6 |
| 20260504174246 | 56 | 193 | 2.0 | 4.0 | 0.00 | 0.00 | 0.00 | 73 | 1010.6 |
| 20260504174207 | 56 | 193 | 2.0 | 4.0 | 0.00 | 0.00 | 0.00 | 73 | 1010.6 |
| 20260504174046 | 56 | 193 | 2.0 | 4.0 | 0.00 | 0.00 | 0.00 | 73 | 1010.6 |
| 20260504173946 | 56 | 193 | 2.0 | 4.0 | 0.00 | 0.00 | 0.00 | 73 | 1010.6 |
| 20260504173846 | 56 | 193 | 2.0 | 4.0 | 0.00 | 0.00 | 0.00 | 73 | 1010.6 |
| 20260504173746 | 56 | 193 | 2.0 | 4.0 | 0.00 | 0.00 | 0.00 | 73 | 1010.6 |
| 20260504173646 | 56 | 193 | 2.0 | 4.0 | 0.00 | 0.00 | 0.00 | 73 | 1010.6 |
| 20260504173546 | 56 | 194 | 2.0 | 4.0 | 0.00 | 0.00 | 0.00 | 73 | 1010.6 |
| 20260504173447 | 56 | 194 | 2.0 | 4.0 | 0.00 | 0.00 | 0.00 | 73 | 1010.6 |
| 20260504173346 | 56 | 194 | 2.0 | 4.0 | 0.00 | 0.00 | 0.00 | 73 | 1010.6 |
| 20260504173246 | 56 | 194 | 2.0 | 5.0 | 0.00 | 0.00 | 0.00 | 74 | 1010.6 |
| 20260504173147 | 56 | 194 | 2.0 | 5.0 | 0.00 | 0.00 | 0.00 | 74 | 1010.6 |
| 20260504173046 | 56 | 194 | 3.0 | 5.0 | 0.00 | 0.00 | 0.00 | 74 | 1010.6 |
| 20260504172946 | 56 | 194 | 3.0 | 5.0 | 0.00 | 0.00 | 0.00 | 74 | 1010.6 |
| 20260504172846 | 56 | 194 | 3.0 | 5.0 | 0.00 | 0.00 | 0.00 | 74 | 1010.6 |
| 20260504172746 | 56 | 194 | 3.0 | 5.0 | 0.00 | 0.00 | 0.00 | 73 | 1010.6 |
| 20260504172707 | 56 | 194 | 3.0 | 5.0 | 0.00 | 0.00 | 0.00 | 73 | 1010.6 |
| 20260504172547 | 56 | 194 | 3.0 | 5.0 | 0.00 | 0.00 | 0.00 | 74 | 1010.6 |
| 20260504172446 | 56 | 194 | 3.0 | 5.0 | 0.00 | 0.00 | 0.00 | 74 | 1010.6 |
| 20260504172347 | 56 | 194 | 3.0 | 5.0 | 0.00 | 0.00 | 0.00 | 74 | 1010.6 |
| 20260504172246 | 56 | 194 | 3.0 | 5.0 | 0.00 | 0.00 | 0.00 | 74 | 1010.6 |
| 20260504172146 | 56 | 194 | 3.0 | 5.0 | 0.00 | 0.00 | 0.00 | 74 | 1010.6 |
| 20260504172047 | 56 | 194 | 3.0 | 5.0 | 0.00 | 0.00 | 0.00 | 74 | 1010.6 |
| 20260504172008 | 56 | 194 | 3.0 | 5.0 | 0.00 | 0.00 | 0.00 | 74 | 1010.6 |
| 20260504171846 | 56 | 194 | 3.0 | 5.0 | 0.00 | 0.00 | 0.00 | 74 | 1010.6 |
| 20260504171807 | 56 | 194 | 3.0 | 5.0 | 0.00 | 0.00 | 0.00 | 74 | 1010.6 |
| 20260504171646 | 56 | 194 | 3.0 | 5.0 | 0.00 | 0.00 | 0.00 | 74 | 1010.6 |
| 20260504171546 | 56 | 194 | 3.0 | 5.0 | 0.00 | 0.00 | 0.00 | 74 | 1010.6 |
| 20260504171446 | 56 | 193 | 3.0 | 5.0 | 0.00 | 0.00 | 0.00 | 74 | 1010.6 |
| 20260504171408 | 56 | 193 | 3.0 | 5.0 | 0.00 | 0.00 | 0.00 | 74 | 1010.6 |
| 20260504171246 | 56 | 193 | 3.0 | 6.0 | 0.00 | 0.00 | 0.00 | 73 | 1010.6 |
| 20260504171207 | 57 | 193 | 3.0 | 6.0 | 0.00 | 0.00 | 0.00 | 73 | 1010.6 |
| 20260504171046 | 57 | 192 | 3.0 | 6.0 | 0.00 | 0.00 | 0.00 | 72 | 1010.6 |
| 20260504171008 | 57 | 192 | 4.0 | 6.0 | 0.00 | 0.00 | 0.00 | 72 | 1010.6 |
| 20260504170846 | 57 | 191 | 4.0 | 6.0 | 0.00 | 0.00 | 0.00 | 71 | 1010.6 |
| 20260504170746 | 57 | 189 | 4.0 | 6.0 | 0.00 | 0.00 | 0.00 | 71 | 1010.6 |
| 20260504170646 | 57 | 188 | 4.0 | 6.0 | 0.00 | 0.00 | 0.00 | 71 | 1010.6 |
| 20260504170607 | 57 | 187 | 4.0 | 6.0 | 0.00 | 0.00 | 0.00 | 71 | 1010.6 |
| 20260504170446 | 57 | 185 | 4.0 | 6.0 | 0.00 | 0.00 | 0.00 | 71 | 1010.6 |
| 20260504170346 | 57 | 183 | 4.0 | 6.0 | 0.00 | 0.00 | 0.00 | 71 | 1010.6 |
| 20260504170246 | 57 | 183 | 4.0 | 6.0 | 0.00 | 0.00 | 0.00 | 70 | 1010.6 |
| 20260504170146 | 57 | 183 | 4.0 | 6.0 | 0.00 | 0.00 | 0.00 | 70 | 1010.6 |
| 20260504160346 | 58 | 166 | 5.0 | 7.0 | 0.00 | 0.00 | 0.00 | 66 | 1010.6 |
| 20260504160248 | 59 | 165 | 5.0 | 7.0 | 0.00 | 0.00 | 0.00 | 66 | 1010.6 |
| 20260504160208 | 59 | 166 | 5.0 | 7.0 | 0.00 | 0.00 | 0.00 | 66 | 1010.6 |
| 20260504151146 | 58 | 164 | 4.0 | 8.0 | 0.00 | 0.00 | 0.00 | 64 | 1010.6 |
| 20260504151047 | 58 | 159 | 3.0 | 8.0 | 0.00 | 0.00 | 0.00 | 65 | 1010.6 |
| 20260504150946 | 58 | 156 | 4.0 | 9.0 | 0.00 | 0.00 | 0.00 | 63 | 1010.6 |
| 20260504150846 | 58 | 155 | 4.0 | 10.0 | 0.00 | 0.00 | 0.00 | 64 | 1010.6 |
| 20260504150746 | 58 | 151 | 4.0 | 10.0 | 0.00 | 0.00 | 0.00 | 63 | 1010.6 |
| 20260504150646 | 58 | 145 | 4.0 | 10.0 | 0.00 | 0.00 | 0.00 | 63 | 1010.6 |
| 20260504150546 | 58 | 141 | 4.0 | 10.0 | 0.00 | 0.00 | 0.00 | 64 | 1010.6 |
| 20260504150446 | 59 | 137 | 4.0 | 10.0 | 0.00 | 0.00 | 0.00 | 64 | 1010.6 |
| 20260504150346 | 59 | 139 | 4.0 | 10.0 | 0.00 | 0.00 | 0.00 | 64 | 1010.6 |
| 20260504150247 | 59 | 147 | 4.0 | 10.0 | 0.00 | 0.00 | 0.00 | 64 | 1010.6 |
| 20260504150146 | 59 | 149 | 4.0 | 10.0 | 0.00 | 0.00 | 0.00 | 63 | 1010.6 |
| 20260504141246 | 58 | 161 | 3.0 | 7.0 | 0.00 | 0.00 | 0.00 | 64 | 1010.6 |
| 20260504141146 | 58 | 169 | 3.0 | 7.0 | 0.00 | 0.00 | 0.00 | 64 | 1010.6 |
| 20260504141107 | 58 | 173 | 3.0 | 7.0 | 0.00 | 0.00 | 0.00 | 64 | 1010.6 |
| 20260504140946 | 58 | 173 | 3.0 | 7.0 | 0.00 | 0.00 | 0.00 | 67 | 1010.6 |
| 20260504140846 | 58 | 169 | 3.0 | 7.0 | 0.00 | 0.00 | 0.00 | 67 | 1010.6 |
| 20260504140746 | 58 | 163 | 4.0 | 7.0 | 0.00 | 0.00 | 0.00 | 68 | 1010.6 |
| 20260504140646 | 58 | 152 | 4.0 | 7.0 | 0.00 | 0.00 | 0.00 | 68 | 1010.6 |
| 20260504140546 | 58 | 144 | 4.0 | 7.0 | 0.00 | 0.00 | 0.00 | 67 | 1010.6 |
| 20260504140446 | 58 | 135 | 4.0 | 7.0 | 0.00 | 0.00 | 0.00 | 66 | 1010.6 |
| 20260504140407 | 58 | 127 | 4.0 | 7.0 | 0.00 | 0.00 | 0.00 | 66 | 1010.6 |
| 20260504140246 | 58 | 123 | 5.0 | 7.0 | 0.00 | 0.00 | 0.00 | 67 | 1010.6 |
| 20260504140146 | 58 | 118 | 5.0 | 7.0 | 0.00 | 0.00 | 0.00 | 68 | 1010.6 |
| 20260504130746 | 56 | 122 | 3.0 | 7.0 | 0.00 | 0.00 | 0.00 | 68 | 1010.6 |
| 20260504130646 | 56 | 131 | 3.0 | 9.0 | 0.00 | 0.00 | 0.00 | 70 | 1010.6 |
| 20260504130547 | 56 | 134 | 4.0 | 9.0 | 0.00 | 0.00 | 0.00 | 70 | 1010.6 |
| 20260504130448 | 56 | 141 | 4.0 | 9.0 | 0.00 | 0.00 | 0.00 | 70 | 1010.6 |
| 20260504130347 | 56 | 147 | 5.0 | 9.0 | 0.00 | 0.00 | 0.00 | 71 | 1010.6 |
| 20260504130247 | 56 | 154 | 4.0 | 10.0 | 0.00 | 0.00 | 0.00 | 71 | 1010.6 |
| 20260504130148 | 56 | 160 | 4.0 | 10.0 | 0.00 | 0.00 | 0.00 | 72 | 1010.6 |
| 20260504120247 | 53 | 175 | 3.0 | 7.0 | 0.00 | 0.00 | 0.00 | 76 | 1010.6 |
| 20260504120147 | 53 | 176 | 3.0 | 7.0 | 0.00 | 0.00 | 0.00 | 76 | 1010.6 |
| 20260504110646 | 51 | 81 | 2.0 | 6.0 | 0.00 | 0.00 | 0.00 | 80 | 1010.6 |
| 20260504110607 | 51 | 82 | 3.0 | 6.0 | 0.00 | 0.00 | 0.00 | 80 | 1010.6 |
| 20260504110447 | 51 | 84 | 3.0 | 6.0 | 0.00 | 0.00 | 0.00 | 80 | 1010.6 |
| 20260504110346 | 51 | 88 | 3.0 | 6.0 | 0.00 | 0.00 | 0.00 | 80 | 1010.6 |
| 20260504110247 | 51 | 88 | 3.0 | 6.0 | 0.00 | 0.00 | 0.00 | 80 | 1010.6 |
| 20260504110148 | 51 | 89 | 3.0 | 6.0 | 0.00 | 0.00 | 0.00 | 80 | 1010.6 |
| 20260504100547 | 50 | 75 | 4.0 | 8.0 | 0.00 | 0.00 | 0.00 | 84 | 1010.6 |
| 20260504100446 | 50 | 80 | 4.0 | 8.0 | 0.00 | 0.00 | 0.00 | 84 | 1010.6 |
| 20260504100346 | 50 | 83 | 4.0 | 8.0 | 0.00 | 0.00 | 0.00 | 84 | 1010.6 |
| 20260504100247 | 50 | 88 | 4.0 | 8.0 | 0.00 | 0.00 | 0.00 | 84 | 1010.6 |
| 20260504100208 | 50 | 88 | 4.0 | 7.0 | 0.00 | 0.00 | 0.00 | 84 | 1010.6 |
| 20260504100108 | 50 | 86 | 4.0 | 7.0 | 0.00 | 0.00 | 0.00 | 84 | 1010.6 |